K5BWX Weather Reports


time (UTC)temp
F
wind
direction
speed
knots
gust
knots
rain 1hr
in
rain 24hr
in
rain mn
in
humidity
%
barometer
mb
20260906040014 77 146 0.0 2.6 0.00 0.00 0.00 84 1015.4
20260906040002 77 146 0.0 2.6 0.00 0.00 0.00 84 1015.5
20260906035810 77 146 0.0 2.6 0.00 0.00 0.00 84 1015.5
20260906035759 77 146 0.0 2.6 0.00 0.00 0.00 84 1015.4
20260906035543 77 146 0.9 2.6 0.00 0.00 0.00 84 1015.7
20260906035442 77 146 0.9 2.6 0.00 0.00 0.00 84 1015.5
20260906035407 77 146 0.9 2.6 0.00 0.00 0.00 83 1015.5
20260906035355 77 146 0.9 2.6 0.00 0.00 0.00 83 1015.5
20260906035142 77 146 0.9 2.6 0.00 0.00 0.00 84 1015.5
20260906035101 77 146 0.0 2.6 0.00 0.00 0.00 83 1015.7
20260906035050 77 146 0.9 2.6 0.00 0.00 0.00 84 1015.7
20260906034835 77 146 0.0 2.6 0.00 0.00 0.00 83 1015.8
20260906034735 77 146 0.0 2.6 0.00 0.00 0.00 84 1015.8
20260906034636 77 146 0.0 2.6 0.00 0.00 0.00 84 1015.8
20260906034536 77 146 0.0 2.6 0.00 0.00 0.00 84 1015.8
20260906034434 77 146 0.0 2.6 0.00 0.00 0.00 84 1015.7
20260906034334 77 146 0.0 2.6 0.00 0.00 0.00 84 1015.7
20260906034232 77 146 0.0 2.6 0.00 0.00 0.00 83 1015.8
20260906034129 77 146 0.0 2.6 0.00 0.00 0.00 83 1015.5
20260906034056 77 146 0.0 2.6 0.00 0.00 0.00 83 1015.5
20260906034043 77 146 0.0 2.6 0.00 0.00 0.00 83 1015.4
20260906033826 77 146 0.0 2.6 0.00 0.00 0.00 83 1015.5
20260906033725 77 146 0.9 2.6 0.00 0.00 0.00 83 1015.4
20260906033649 77 146 0.9 2.6 0.00 0.00 0.00 83 1015.4
20260906033638 77 146 0.9 2.6 0.00 0.00 0.00 83 1015.5
20260906033422 77 146 0.9 2.6 0.00 0.00 0.00 83 1015.5
20260906033320 77 146 0.9 2.6 0.00 0.00 0.00 83 1015.4
20260906033219 77 146 0.9 2.6 0.00 0.00 0.00 83 1015.4
20260906033117 77 146 1.7 2.6 0.00 0.00 0.00 83 1015.4
20260906033057 77 146 1.7 2.6 0.00 0.00 0.00 82 1015.3
20260906033052 77 146 0.9 2.6 0.00 0.00 0.00 82 1015.4
20260906033047 77 146 0.9 2.6 0.00 0.00 0.00 82 1015.3
20260906033044 77 146 0.9 2.6 0.00 0.00 0.00 82 1015.3
20260906033032 77 146 1.7 2.6 0.00 0.00 0.00 83 1015.5
20260906032857 77 146 0.9 2.6 0.00 0.00 0.00 82 1015.4
20260906032412 77 147 0.9 3.5 0.00 0.00 0.00 82 1015.2
20260906032311 77 146 0.9 3.5 0.00 0.00 0.00 82 1015.3
20260906032211 77 146 0.9 3.5 0.00 0.00 0.00 82 1015.3
20260906032112 77 146 0.9 3.5 0.00 0.00 0.00 82 1015.3
20260906032011 77 146 0.9 3.5 0.00 0.00 0.00 82 1015.2
20260906031911 77 146 0.9 3.5 0.00 0.00 0.00 82 1015.3
20260906031811 77 146 0.9 3.5 0.00 0.00 0.00 82 1015.3
20260906031711 77 146 0.9 3.5 0.00 0.00 0.00 82 1015.3
20260906031610 77 146 0.9 3.5 0.00 0.00 0.00 82 1015.3
20260906031511 77 146 1.7 3.5 0.00 0.00 0.00 82 1015.3
20260906031438 77 146 1.7 4.3 0.00 0.00 0.00 83 1015.3
20260906031426 77 146 1.7 3.5 0.00 0.00 0.00 83 1015.3
20260906031212 77 145 1.7 4.3 0.00 0.00 0.00 83 1015.2
20260906031110 77 145 1.7 4.3 0.00 0.00 0.00 83 1015.4
20260906031011 77 145 0.9 4.3 0.00 0.00 0.00 82 1015.3
20260906030912 77 145 0.9 4.3 0.00 0.00 0.00 82 1015.2
20260906030811 77 145 0.9 4.3 0.00 0.00 0.00 82 1015.3
20260906030711 77 146 0.9 4.3 0.00 0.00 0.00 82 1015.3
20260906030640 77 130 0.9 4.3 0.00 0.00 0.00 84 1015.4
20260906030627 77 145 0.9 4.3 0.00 0.00 0.00 83 1015.4
20260906030407 78 129 0.0 4.3 0.00 0.00 0.00 84 1015.4
20260906030334 78 128 0.0 0.9 0.00 0.00 0.00 83 1015.4
20260906030322 78 128 0.0 1.7 0.00 0.00 0.00 83 1015.4
20260906030106 78 128 0.0 0.9 0.00 0.00 0.00 81 1015.3
20260906030008 77 128 0.0 0.0 0.00 0.00 0.00 81 1015.3
20260906025908 77 128 0.0 0.0 0.00 0.00 0.00 81 1015.3
20260906025808 77 128 0.0 0.0 0.00 0.00 0.00 81 1015.3
20260906025708 77 128 0.0 0.0 0.00 0.00 0.00 81 1015.3
20260906025608 77 128 0.0 0.0 0.00 0.00 0.00 81 1015.3
20260906025508 77 128 0.0 0.9 0.00 0.00 0.00 81 1015.3
20260906025407 77 128 0.0 1.7 0.00 0.00 0.00 81 1015.3
20260906025307 77 128 0.0 1.7 0.00 0.00 0.00 81 1015.3
20260906025231 77 128 0.0 1.7 0.00 0.00 0.00 81 1015.2
20260906025221 77 128 0.0 1.7 0.00 0.00 0.00 81 1015.2
20260906025008 77 128 0.0 1.7 0.00 0.00 0.00 82 1015.2
20260906024908 77 128 0.0 1.7 0.00 0.00 0.00 82 1015.1
20260906024808 77 128 0.0 1.7 0.00 0.00 0.00 82 1015.1
20260906024708 77 128 0.0 1.7 0.00 0.00 0.00 82 1015.2
20260906024606 77 128 0.0 1.7 0.00 0.00 0.00 82 1015.1
20260906024507 77 128 0.0 1.7 0.00 0.00 0.00 82 1015.1
20260906024407 77 128 0.0 1.7 0.00 0.00 0.00 82 1015.2
20260906024306 77 128 0.0 1.7 0.00 0.00 0.00 82 1015.1
20260906024207 77 128 0.0 1.7 0.00 0.00 0.00 82 1015.2
20260906024108 77 128 0.0 1.7 0.00 0.00 0.00 82 1015.2
20260906024007 77 128 0.0 1.7 0.00 0.00 0.00 82 1015.1
20260906023908 77 128 0.0 1.7 0.00 0.00 0.00 82 1015.2
20260906023800 77 128 0.0 1.7 0.00 0.00 0.00 82 1015.2
20260906023659 77 128 0.0 1.7 0.00 0.00 0.00 82 1015.2
20260906023600 77 128 0.0 1.7 0.00 0.00 0.00 83 1015.2
20260906023459 77 128 0.0 1.7 0.00 0.00 0.00 83 1015.2
20260906023424 77 128 0.0 1.7 0.00 0.00 0.00 83 1015.2
20260906023413 77 128 0.0 1.7 0.00 0.00 0.00 83 1015.2
20260906023200 77 128 0.0 1.7 0.00 0.00 0.00 83 1015.2
20260906023126 77 128 0.0 3.5 0.00 0.00 0.00 84 1015.2
20260906023114 77 128 0.0 3.5 0.00 0.00 0.00 83 1015.1
20260906022900 77 128 0.0 3.5 0.00 0.00 0.00 83 1015.1
20260906022800 77 128 0.0 3.5 0.00 0.00 0.00 83 1015.1
20260906022658 77 128 0.9 3.5 0.00 0.00 0.00 83 1015.2
20260906022600 77 128 0.9 3.5 0.00 0.00 0.00 83 1015.2
20260906022459 77 128 0.9 3.5 0.00 0.00 0.00 83 1015.2
20260906022400 77 128 0.9 3.5 0.00 0.00 0.00 83 1015.2
20260906022327 77 128 0.9 3.5 0.00 0.00 0.00 83 1015.1
20260906022315 77 128 0.9 3.5 0.00 0.00 0.00 83 1015.2
20260906022059 77 128 0.9 3.5 0.00 0.00 0.00 83 1015.1
20260906021959 77 128 1.7 3.5 0.00 0.00 0.00 83 1015.1
20260906021859 77 128 1.7 3.5 0.00 0.00 0.00 84 1014.9
20260906021824 77 140 0.9 3.5 0.00 0.00 0.00 84 1014.9
20260906021814 77 128 1.7 3.5 0.00 0.00 0.00 84 1015.0
20260906021559 77 140 0.9 3.5 0.00 0.00 0.00 84 1014.9
20260906021525 77 139 0.9 3.5 0.00 0.00 0.00 84 1014.9
20260906021514 77 140 0.9 3.5 0.00 0.00 0.00 84 1014.8
20260906021300 77 138 0.9 3.5 0.00 0.00 0.00 84 1014.8
20260906021156 77 137 0.9 3.5 0.00 0.00 0.00 84 1014.9
20260906021055 77 327 0.9 3.5 0.00 0.00 0.00 84 1014.8
20260906021021 78 326 0.0 1.7 0.00 0.00 0.00 84 1014.8
20260906021009 78 327 0.0 3.5 0.00 0.00 0.00 84 1014.8
20260906020751 78 326 0.0 1.7 0.00 0.00 0.00 84 1014.8
20260906020644 78 326 0.0 1.7 0.00 0.00 0.00 83 1014.8
20260906020543 78 326 0.0 1.7 0.00 0.00 0.00 82 1014.7
20260906020443 78 326 0.0 1.7 0.00 0.00 0.00 81 1014.5
20260906020342 78 326 0.0 1.7 0.00 0.00 0.00 81 1014.6
20260906020241 78 326 0.0 1.7 0.00 0.00 0.00 81 1014.6
20260906020141 78 326 0.0 1.7 0.00 0.00 0.00 82 1014.5
20260906020040 78 326 0.0 1.7 0.00 0.00 0.00 82 1014.4
20260906015939 78 326 0.0 1.7 0.00 0.00 0.00 82 1014.4
20260906015903 78 326 0.0 1.7 0.00 0.00 0.00 82 1014.4
20260906015851 78 326 0.0 1.7 0.00 0.00 0.00 82 1014.4
20260906015633 78 326 0.0 1.7 0.00 0.00 0.00 82 1014.4
20260906015534 78 326 0.0 1.7 0.00 0.00 0.00 82 1014.4
20260906015432 78 326 0.0 1.7 0.00 0.00 0.00 82 1014.4
20260906015332 78 326 0.0 1.7 0.00 0.00 0.00 82 1014.4
20260906015229 78 326 0.0 1.7 0.00 0.00 0.00 82 1014.3
20260906015119 78 326 0.0 1.7 0.00 0.00 0.00 82 1014.4
20260906015020 78 326 0.0 1.7 0.00 0.00 0.00 82 1014.3
20260906014920 78 326 0.0 1.7 0.00 0.00 0.00 82 1014.2
20260906014818 78 326 0.0 1.7 0.00 0.00 0.00 82 1014.3
20260906014743 79 326 0.0 0.9 0.00 0.00 0.00 82 1014.1
20260906014730 79 326 0.0 1.7 0.00 0.00 0.00 82 1014.1
20260906014601 79 326 0.0 3.5 0.00 0.00 0.00 81 1014.2
20260906014544 79 326 0.0 3.5 0.00 0.00 0.00 82 1014.2
20260906014428 79 326 0.0 3.5 0.00 0.00 0.00 81 1014.2
20260906014418 79 326 0.0 3.5 0.00 0.00 0.00 82 1014.2
20260906014400 79 326 0.0 3.5 0.00 0.00 0.00 81 1014.2
20260906014237 79 326 0.0 3.5 0.00 0.00 0.00 81 1014.2
20260906013908 79 326 0.9 3.5 0.00 0.00 0.00 81 1014.2
20260906013806 79 326 0.9 3.5 0.00 0.00 0.00 81 1014.2
20260906013703 79 326 0.9 3.5 0.00 0.00 0.00 81 1014.1
20260906013555 79 326 0.9 3.5 0.00 0.00 0.00 81 1014.1
20260906013454 79 326 0.9 7.0 0.00 0.00 0.00 81 1014.2
20260906013353 79 326 0.9 7.0 0.00 0.00 0.00 81 1014.1
20260906013255 79 326 0.9 7.0 0.00 0.00 0.00 81 1014.1
20260906013154 79 326 1.7 7.0 0.00 0.00 0.00 81 1014.2
20260906013050 79 326 1.7 7.0 0.00 0.00 0.00 80 1014.1
20260906012949 79 326 1.7 7.0 0.00 0.00 0.00 80 1014.3
20260906012848 79 326 1.7 7.0 0.00 0.00 0.00 79 1014.4
20260906012748 79 326 1.7 7.0 0.00 0.00 0.00 79 1014.4
20260906012648 79 326 1.7 7.0 0.00 0.00 0.00 79 1014.5
20260906012616 79 0 1.7 7.0 0.00 0.00 0.00 79 1014.5
20260906012603 79 327 1.7 7.0 0.00 0.00 0.00 79 1014.6
20260906012344 79 342 1.7 8.7 0.00 0.00 0.00 79 1014.5
20260906012244 79 0 1.7 8.7 0.00 0.00 0.00 79 1014.4
20260906012141 79 0 1.7 8.7 0.00 0.00 0.00 79 1014.3
20260906012128 79 0 2.6 8.7 0.00 0.00 0.00 79 1014.2
20260906012123 79 0 2.6 8.7 0.00 0.00 0.00 78 1014.3
20260906012105 79 0 2.6 8.7 0.00 0.00 0.00 79 1014.2
20260906011800 79 0 1.7 8.7 0.00 0.00 0.00 78 1014.5
20260906011745 79 0 1.7 8.7 0.00 0.00 0.00 78 1014.4
20260906011529 79 334 1.7 8.7 0.00 0.00 0.00 79 1014.7
20260906011429 79 30 0.9 8.7 0.00 0.00 0.00 79 1014.8
20260906011329 80 325 0.9 7.0 0.00 0.00 0.00 79 1014.8
20260906011228 80 319 0.9 4.3 0.00 0.00 0.00 80 1014.8
20260906011125 80 130 0.0 2.6 0.00 0.00 0.00 80 1014.7
20260906011025 80 134 0.0 2.6 0.00 0.00 0.00 78 1014.6
20260906010923 80 134 0.0 2.6 0.00 0.00 0.00 78 1014.4
20260906010823 80 134 0.0 2.6 0.00 0.00 0.00 78 1014.3
20260906010744 80 134 0.9 2.6 0.00 0.00 0.00 78 1014.3
20260906010735 80 134 0.0 2.6 0.00 0.00 0.00 78 1014.3
20260906010514 80 138 0.9 2.6 0.00 0.00 0.00 78 1014.2
20260906010414 80 138 0.9 2.6 0.00 0.00 0.00 78 1014.3
20260906010314 80 138 0.9 2.6 0.00 0.00 0.00 78 1014.2
20260906010211 80 138 0.9 2.6 0.00 0.00 0.00 78 1014.3
20260906010110 80 138 0.9 2.6 0.00 0.00 0.00 78 1014.3
20260906010034 80 138 0.9 2.6 0.00 0.00 0.00 77 1014.3
20260906010022 80 138 0.9 2.6 0.00 0.00 0.00 77 1014.3
20260906005807 80 138 0.9 2.6 0.00 0.00 0.00 77 1014.4
20260906005705 80 138 0.9 2.6 0.00 0.00 0.00 77 1014.4
20260906005603 80 138 0.9 2.6 0.00 0.00 0.00 77 1014.4
20260906005459 80 136 0.9 2.6 0.00 0.00 0.00 77 1014.4
20260906005358 80 136 0.9 2.6 0.00 0.00 0.00 77 1014.4
20260906005258 80 136 0.9 2.6 0.00 0.00 0.00 77 1014.4
20260906005156 80 136 0.9 2.6 0.00 0.00 0.00 77 1014.4
20260906005058 80 136 0.9 2.6 0.00 0.00 0.00 77 1014.4
20260906005017 80 136 0.9 2.6 0.00 0.00 0.00 76 1014.4
20260906005004 80 136 0.9 2.6 0.00 0.00 0.00 77 1014.4
20260906004749 80 136 0.9 2.6 0.00 0.00 0.00 76 1014.3
20260906004715 80 136 0.9 2.6 0.00 0.00 0.00 76 1014.3
20260906004703 80 136 0.9 2.6 0.00 0.00 0.00 76 1014.3
20260906004514 81 136 0.9 1.7 0.00 0.00 0.00 77 1014.2
20260906004503 81 136 0.9 2.6 0.00 0.00 0.00 76 1014.3
20260906004245 81 136 0.9 2.6 0.00 0.00 0.00 77 1014.3
20260906004143 81 136 0.9 2.6 0.00 0.00 0.00 77 1014.4
20260906004043 81 136 0.9 2.6 0.00 0.00 0.00 76 1014.4
20260906004010 81 136 0.9 2.6 0.00 0.00 0.00 76 1014.5
20260906003959 81 136 0.9 2.6 0.00 0.00 0.00 76 1014.4
20260906003745 81 136 0.9 2.6 0.00 0.00 0.00 76 1014.3
20260906003641 81 136 0.9 2.6 0.00 0.00 0.00 76 1014.4
20260906003610 81 136 0.9 2.6 0.00 0.00 0.00 76 1014.4
20260906003557 81 136 0.9 2.6 0.00 0.00 0.00 76 1014.5
20260906003407 82 136 0.9 2.6 0.00 0.00 0.00 75 1014.3
20260906003356 81 136 0.9 2.6 0.00 0.00 0.00 76 1014.5
20260906003139 82 136 0.9 2.6 0.00 0.00 0.00 75 1014.4
20260906003040 82 136 0.9 2.6 0.00 0.00 0.00 75 1014.2
20260906002938 82 145 0.9 1.7 0.00 0.00 0.00 75 1014.3
20260906002835 82 145 0.9 1.7 0.00 0.00 0.00 75 1014.3
20260906002734 82 145 0.9 1.7 0.00 0.00 0.00 75 1014.3
20260906002633 82 145 0.9 1.7 0.00 0.00 0.00 75 1014.3
20260906002534 82 145 0.9 1.7 0.00 0.00 0.00 75 1014.3
20260906002456 82 148 0.0 1.7 0.00 0.00 0.00 74 1014.4
20260906002445 82 148 0.0 1.7 0.00 0.00 0.00 74 1014.4
20260906002259 83 148 0.0 1.7 0.00 0.00 0.00 73 1014.4
20260906002252 83 148 0.0 1.7 0.00 0.00 0.00 73 1014.5
20260906002241 82 148 0.0 1.7 0.00 0.00 0.00 74 1014.4
20260906002222 83 148 0.0 1.7 0.00 0.00 0.00 74 1014.4
20260906001944 83 148 0.0 1.7 0.00 0.00 0.00 73 1014.4
20260906001753 83 148 0.0 0.9 0.00 0.00 0.00 73 1014.5
20260906001744 83 148 0.0 0.9 0.00 0.00 0.00 73 1014.4
20260906001526 83 148 0.0 0.9 0.00 0.00 0.00 72 1014.5
20260906001424 83 148 0.0 0.9 0.00 0.00 0.00 72 1014.4
20260906001322 83 148 0.0 0.9 0.00 0.00 0.00 72 1014.3
20260906001221 83 148 0.0 0.9 0.00 0.00 0.00 72 1014.3
20260906001121 83 148 0.0 0.9 0.00 0.00 0.00 72 1014.3
20260906001018 83 148 0.0 0.9 0.00 0.00 0.00 72 1014.2
20260906000917 83 148 0.0 0.9 0.00 0.00 0.00 72 1014.2
20260906000815 83 148 0.0 0.9 0.00 0.00 0.00 72 1014.2
20260906000712 83 148 0.0 0.9 0.00 0.00 0.00 72 1014.2
20260906000609 83 148 0.0 0.9 0.00 0.00 0.00 72 1014.1
20260906000534 83 148 0.0 0.9 0.00 0.00 0.00 72 1014.2
20260906000523 83 148 0.0 0.9 0.00 0.00 0.00 71 1014.2
20260906000333 83 148 0.0 0.9 0.00 0.00 0.00 72 1014.2
20260906000320 83 148 0.0 0.9 0.00 0.00 0.00 71 1014.2
20260906000104 83 148 0.0 0.9 0.00 0.00 0.00 72 1014.3
20260906000028 83 148 0.0 0.9 0.00 0.00 0.00 71 1014.4
20260906000017 83 148 0.0 0.9 0.00 0.00 0.00 71 1014.3
20260905235801 83 148 0.0 1.7 0.00 0.00 0.00 71 1014.3
20260905235659 83 148 0.0 1.7 0.00 0.00 0.00 71 1014.3
20260905235622 83 148 0.0 1.7 0.00 0.00 0.00 71 1014.3
20260905235612 83 148 0.0 1.7 0.00 0.00 0.00 71 1014.3
20260905235419 83 148 0.0 1.7 0.00 0.00 0.00 71 1014.3
20260905235408 83 148 0.0 1.7 0.00 0.00 0.00 71 1014.3
20260905235147 83 148 0.0 1.7 0.00 0.00 0.00 71 1014.3
20260905235047 83 148 0.0 1.7 0.00 0.00 0.00 71 1014.3
20260905234947 83 148 0.0 1.7 0.00 0.00 0.00 71 1014.3
20260905234844 83 148 0.0 1.7 0.00 0.00 0.00 71 1014.2
20260905234744 83 148 0.0 1.7 0.00 0.00 0.00 71 1014.3
20260905234641 83 148 0.0 1.7 0.00 0.00 0.00 71 1014.2
20260905234541 83 148 0.0 7.0 0.00 0.00 0.00 70 1014.2
20260905234441 84 148 0.0 7.0 0.00 0.00 0.00 71 1014.2
20260905234339 84 148 0.9 7.0 0.00 0.00 0.00 71 1014.2
20260905234237 84 148 0.9 7.0 0.00 0.00 0.00 71 1014.1
20260905234223 84 148 0.9 7.0 0.00 0.00 0.00 71 1014.1
20260905234218 84 148 0.9 7.0 0.00 0.00 0.00 70 1014.2
20260905234204 84 148 0.9 7.0 0.00 0.00 0.00 71 1014.2
20260905233834 84 148 0.9 7.0 0.00 0.00 0.00 71 1014.2
20260905233732 84 148 0.9 7.0 0.00 0.00 0.00 71 1014.2
20260905233653 84 148 0.9 7.0 0.00 0.00 0.00 70 1014.1
20260905233640 84 148 0.9 7.0 0.00 0.00 0.00 70 1014.2
20260905233452 84 148 0.9 7.0 0.00 0.00 0.00 70 1014.2
20260905233441 84 148 0.9 7.0 0.00 0.00 0.00 70 1014.2
20260905233222 84 148 1.7 7.0 0.00 0.00 0.00 70 1014.2
20260905233122 84 148 0.9 7.0 0.00 0.00 0.00 70 1014.2
20260905233020 84 148 0.9 7.0 0.00 0.00 0.00 70 1014.2
20260905232948 84 127 0.9 7.0 0.00 0.00 0.00 70 1014.2
20260905232936 84 149 0.9 7.0 0.00 0.00 0.00 70 1014.2
20260905232719 84 127 0.9 7.0 0.00 0.00 0.00 70 1014.3
20260905232620 84 127 0.9 7.0 0.00 0.00 0.00 70 1014.2
20260905232517 84 110 0.9 2.6 0.00 0.00 0.00 70 1014.3
20260905232415 84 110 0.0 2.6 0.00 0.00 0.00 70 1014.2
20260905232316 84 109 0.0 2.6 0.00 0.00 0.00 70 1014.3
20260905232216 84 109 0.0 0.9 0.00 0.00 0.00 70 1014.2
20260905232207 84 109 0.0 0.9 0.00 0.00 0.00 70 1014.3
20260905232203 84 109 0.9 1.7 0.00 0.00 0.00 70 1014.2
20260905232146 84 109 0.0 0.9 0.00 0.00 0.00 70 1014.2
20260905231835 84 109 0.9 1.7 0.00 0.00 0.00 69 1014.2
20260905231831 84 109 0.9 1.7 0.00 0.00 0.00 69 1014.2
20260905231819 84 109 0.9 1.7 0.00 0.00 0.00 70 1014.2
20260905231802 84 109 0.9 1.7 0.00 0.00 0.00 70 1014.2
20260905231639 84 109 0.9 1.7 0.00 0.00 0.00 70 1014.2
20260905231307 84 109 0.0 1.7 0.00 0.00 0.00 69 1014.1
20260905231208 84 109 0.0 1.7 0.00 0.00 0.00 70 1014.1
20260905231105 84 109 0.0 1.7 0.00 0.00 0.00 70 1014.1
20260905231002 84 109 0.0 1.7 0.00 0.00 0.00 70 1014.0
20260905230903 84 109 0.0 0.0 0.00 0.00 0.00 70 1014.1
20260905230802 84 109 0.0 0.9 0.00 0.00 0.00 70 1014.1
20260905230725 84 109 0.0 0.9 0.00 0.00 0.00 70 1014.1
20260905230715 84 109 0.0 0.9 0.00 0.00 0.00 70 1014.1
20260905230457 84 109 0.0 0.9 0.00 0.00 0.00 70 1014.1
20260905230358 84 109 0.0 0.9 0.00 0.00 0.00 70 1014.1
20260905230255 84 109 0.0 0.9 0.00 0.00 0.00 70 1014.2
20260905230156 84 109 0.0 0.9 0.00 0.00 0.00 69 1014.1
20260905230056 84 109 0.0 0.9 0.00 0.00 0.00 70 1014.0
20260905225955 84 109 0.0 0.9 0.00 0.00 0.00 70 1014.1
20260905225849 84 109 0.0 0.9 0.00 0.00 0.00 70 1014.1
20260905225815 84 109 0.0 0.9 0.00 0.00 0.00 70 1014.2
20260905225804 84 109 0.0 0.9 0.00 0.00 0.00 70 1014.2
20260905225550 84 109 0.0 0.9 0.00 0.00 0.00 70 1014.1
20260905225450 84 109 0.0 0.9 0.00 0.00 0.00 70 1014.1
20260905225349 84 109 0.0 0.9 0.00 0.00 0.00 70 1014.1
20260905225246 84 109 0.0 0.9 0.00 0.00 0.00 70 1014.0
20260905225146 84 109 0.0 0.9 0.00 0.00 0.00 70 1014.1
20260905225045 84 109 0.0 0.9 0.00 0.00 0.00 70 1014.1
20260905224943 84 109 0.0 0.9 0.00 0.00 0.00 70 1014.1
20260905224904 84 109 0.0 0.9 0.00 0.00 0.00 69 1014.1
20260905224852 84 109 0.0 0.9 0.00 0.00 0.00 69 1014.0
20260905224636 84 109 0.0 0.9 0.00 0.00 0.00 69 1014.0
20260905224536 84 109 0.0 0.9 0.00 0.00 0.00 69 1014.1
20260905224434 84 109 0.0 0.9 0.00 0.00 0.00 69 1013.9
20260905224334 84 109 0.0 3.5 0.00 0.00 0.00 70 1014.0
20260905224230 83 109 0.0 3.5 0.00 0.00 0.00 70 1013.9
20260905224132 83 109 0.0 3.5 0.00 0.00 0.00 70 1014.0
20260905224030 83 109 0.0 3.5 0.00 0.00 0.00 70 1013.9
20260905224016 83 109 0.0 3.5 0.00 0.00 0.00 70 1014.0
20260905224011 83 109 0.0 3.5 0.00 0.00 0.00 70 1014.0
20260905223955 83 109 0.0 3.5 0.00 0.00 0.00 70 1013.9
20260905223626 83 109 0.0 3.5 0.00 0.00 0.00 70 1014.1
20260905223523 83 109 0.0 3.5 0.00 0.00 0.00 70 1014.1
20260905223422 83 109 0.0 3.5 0.00 0.00 0.00 70 1014.1
20260905223317 83 109 0.9 4.3 0.00 0.00 0.00 69 1014.1
20260905223215 83 109 0.9 4.3 0.00 0.00 0.00 69 1014.0
20260905223138 83 109 0.9 5.2 0.00 0.00 0.00 69 1014.0
20260905223128 83 109 0.9 4.3 0.00 0.00 0.00 69 1014.1
20260905222912 83 109 0.9 5.2 0.00 0.00 0.00 69 1014.1
20260905222810 83 109 0.9 5.2 0.00 0.00 0.00 69 1014.1
20260905222709 83 109 0.9 5.2 0.00 0.00 0.00 69 1014.1
20260905222609 83 109 0.9 5.2 0.00 0.00 0.00 69 1014.2
20260905222508 83 109 1.7 5.2 0.00 0.00 0.00 69 1014.1
20260905222406 83 108 0.9 5.2 0.00 0.00 0.00 70 1014.2
20260905222314 84 140 1.7 7.8 0.00 0.00 0.00 69 1014.6
20260905222306 83 144 1.7 5.2 0.00 0.00 0.00 69 1014.3
20260905222300 83 144 1.7 5.2 0.00 0.00 0.00 69 1014.4
20260905222256 83 133 1.7 4.3 0.00 0.00 0.00 69 1014.4
20260905222251 83 140 1.7 7.8 0.00 0.00 0.00 70 1014.6
20260905222234 83 144 1.7 5.2 0.00 0.00 0.00 69 1014.4
20260905221945 83 133 1.7 4.3 0.00 0.00 0.00 69 1014.4
20260905221822 83 133 1.7 7.8 0.00 0.00 0.00 69 1014.5
20260905221516 84 128 1.7 7.8 0.00 0.00 0.00 69 1014.7
20260905221504 84 128 1.7 7.8 0.00 0.00 0.00 69 1014.6
20260905221244 84 128 1.7 7.8 0.00 0.00 0.00 69 1014.7
20260905221146 84 128 1.7 7.8 0.00 0.00 0.00 69 1014.7
20260905221045 84 114 1.7 7.8 0.00 0.00 0.00 69 1014.7
20260905220945 84 171 2.6 7.8 0.00 0.00 0.00 69 1014.7
20260905220844 84 171 2.6 7.8 0.00 0.00 0.00 69 1014.8
20260905220740 84 173 2.6 7.8 0.00 0.00 0.00 69 1014.7
20260905220704 84 146 2.6 7.8 0.00 0.00 0.00 69 1014.7
20260905220653 84 117 2.6 7.8 0.00 0.00 0.00 69 1014.8
20260905220438 84 134 2.6 7.8 0.00 0.00 0.00 68 1014.8
20260905220337 84 132 2.6 7.8 0.00 0.00 0.00 68 1014.8
20260905220234 84 143 2.6 7.8 0.00 0.00 0.00 68 1014.8
20260905220136 84 142 2.6 7.8 0.00 0.00 0.00 68 1014.8
20260905220034 84 142 2.6 7.8 0.00 0.00 0.00 67 1014.8
20260905215934 85 94 2.6 7.8 0.00 0.00 0.00 67 1014.8
20260905215833 85 178 1.7 7.8 0.00 0.00 0.00 67 1014.9
20260905215732 85 146 1.7 7.8 0.00 0.00 0.00 67 1014.9
20260905215633 85 144 1.7 7.8 0.00 0.00 0.00 66 1014.9
20260905215532 85 113 1.7 7.8 0.00 0.00 0.00 66 1014.9
20260905215431 85 115 1.7 7.8 0.00 0.00 0.00 66 1014.9
20260905215331 85 115 1.7 7.8 0.00 0.00 0.00 66 1014.9
20260905215232 85 115 1.7 7.8 0.00 0.00 0.00 66 1015.0
20260905215130 85 132 1.7 7.8 0.00 0.00 0.00 66 1014.8
20260905215032 85 84 1.7 7.8 0.00 0.00 0.00 66 1014.9
20260905214930 85 129 2.6 7.8 0.00 0.00 0.00 66 1015.0
20260905214829 85 141 2.6 7.8 0.00 0.00 0.00 65 1015.0
20260905214730 86 142 2.6 7.8 0.00 0.00 0.00 65 1015.0
20260905214652 86 98 2.6 7.8 0.00 0.00 0.00 65 1015.1
20260905214640 86 98 2.6 7.8 0.00 0.00 0.00 65 1015.1
20260905214425 86 98 2.6 7.8 0.00 0.00 0.00 65 1015.1
20260905214326 86 98 2.6 7.8 0.00 0.00 0.00 64 1015.1
20260905214225 86 99 3.5 7.8 0.00 0.00 0.00 64 1015.0
20260905214125 87 105 2.6 7.8 0.00 0.00 0.00 64 1014.9
20260905214025 87 94 2.6 7.8 0.00 0.00 0.00 64 1014.9
20260905213924 87 138 2.6 7.8 0.00 0.00 0.00 64 1014.9
20260905213850 87 88 2.6 7.8 0.00 0.00 0.00 64 1014.9
20260905213838 87 109 2.6 7.8 0.00 0.00 0.00 63 1014.9
20260905213623 88 92 2.6 7.8 0.00 0.00 0.00 64 1014.7
20260905213523 88 92 2.6 7.8 0.00 0.00 0.00 64 1014.6
20260905213423 88 92 2.6 7.8 0.00 0.00 0.00 64 1014.6
20260905213323 88 92 2.6 7.8 0.00 0.00 0.00 64 1014.7
20260905213223 88 92 2.6 7.8 0.00 0.00 0.00 64 1014.6
20260905213124 88 91 2.6 7.8 0.00 0.00 0.00 65 1014.6
20260905213022 89 91 2.6 7.8 0.00 0.00 0.00 64 1014.6
20260905212922 89 91 2.6 7.8 0.00 0.00 0.00 64 1014.7
20260905212824 89 92 3.5 7.8 0.00 0.00 0.00 63 1014.7
20260905212722 89 96 3.5 7.8 0.00 0.00 0.00 63 1014.6
20260905212623 89 104 3.5 7.8 0.00 0.00 0.00 63 1014.6
20260905212524 90 94 2.6 7.8 0.00 0.00 0.00 62 1014.7
20260905212423 90 93 2.6 7.8 0.00 0.00 0.00 62 1014.6
20260905212350 90 95 2.6 7.8 0.00 0.00 0.00 61 1014.6
20260905212338 90 94 2.6 7.8 0.00 0.00 0.00 61 1014.7
20260905212122 91 98 2.6 7.8 0.00 0.00 0.00 60 1014.6
20260905212115 91 109 1.7 7.8 0.00 0.00 0.00 59 1014.7
20260905212110 91 87 1.7 7.8 0.00 0.00 0.00 60 1014.6
20260905212054 91 104 2.6 7.8 0.00 0.00 0.00 60 1014.7
20260905211723 92 88 0.9 3.5 0.00 0.00 0.00 60 1014.6
20260905211623 92 86 0.9 3.5 0.00 0.00 0.00 60 1014.6
20260905211523 92 85 0.9 3.5 0.00 0.00 0.00 60 1014.6
20260905211419 92 85 0.9 3.5 0.00 0.00 0.00 60 1014.5
20260905211346 92 46 0.9 2.6 0.00 0.00 0.00 59 1014.5
20260905211334 92 65 0.9 2.6 0.00 0.00 0.00 59 1014.5
20260905211119 92 46 0.9 2.6 0.00 0.00 0.00 58 1014.4
20260905211019 92 46 0.9 2.6 0.00 0.00 0.00 59 1014.5
20260905210918 92 46 0.9 2.6 0.00 0.00 0.00 58 1014.4
20260905210820 92 46 0.9 8.7 0.00 0.00 0.00 58 1014.4
20260905210718 92 46 0.9 8.7 0.00 0.00 0.00 58 1014.5
20260905210618 92 46 0.9 8.7 0.00 0.00 0.00 57 1014.4
20260905210543 92 46 0.9 8.7 0.00 0.00 0.00 57 1014.4
20260905210532 92 46 0.9 8.7 0.00 0.00 0.00 57 1014.4
20260905210318 93 46 1.7 8.7 0.00 0.00 0.00 57 1014.4
20260905210218 93 42 1.7 8.7 0.00 0.00 0.00 57 1014.4
20260905210143 93 38 1.7 8.7 0.00 0.00 0.00 56 1014.3
20260905210134 93 38 1.7 8.7 0.00 0.00 0.00 56 1014.3
20260905205920 93 38 1.7 8.7 0.00 0.00 0.00 56 1014.4
20260905205819 93 40 1.7 8.7 0.00 0.00 0.00 56 1014.4
20260905205718 94 40 1.7 8.7 0.00 0.00 0.00 55 1014.3
20260905205618 94 38 1.7 8.7 0.00 0.00 0.00 55 1014.4
20260905205520 94 41 1.7 8.7 0.00 0.00 0.00 55 1014.3
20260905205418 95 40 1.7 8.7 0.00 0.00 0.00 54 1014.3
20260905205320 95 40 1.7 8.7 0.00 0.00 0.00 54 1014.2
20260905205218 95 40 1.7 8.7 0.00 0.00 0.00 53 1014.1
20260905205119 96 40 2.6 8.7 0.00 0.00 0.00 53 1014.1
20260905205045 96 49 1.7 7.8 0.00 0.00 0.00 52 1014.1
20260905205035 96 40 2.6 8.7 0.00 0.00 0.00 52 1014.1
20260905204847 97 50 1.7 7.0 0.00 0.00 0.00 51 1014.1
20260905204834 97 51 1.7 7.0 0.00 0.00 0.00 52 1014.1
20260905204619 98 50 1.7 7.0 0.00 0.00 0.00 51 1014.1
20260905204519 98 34 1.7 7.0 0.00 0.00 0.00 51 1014.1
20260905204419 98 30 1.7 7.0 0.00 0.00 0.00 51 1014.1
20260905204318 98 20 1.7 7.0 0.00 0.00 0.00 51 1014.1
20260905204219 98 20 1.7 7.0 0.00 0.00 0.00 50 1014.1
20260905204115 98 5 1.7 5.2 0.00 0.00 0.00 50 1014.1
20260905204014 98 355 1.7 5.2 0.00 0.00 0.00 50 1014.1
20260905203914 98 344 1.7 5.2 0.00 0.00 0.00 49 1014.1
20260905203814 99 286 1.7 5.2 0.00 0.00 0.00 49 1014.1
20260905203715 99 286 1.7 5.2 0.00 0.00 0.00 50 1014.1
20260905203616 99 355 0.9 5.2 0.00 0.00 0.00 50 1014.0
20260905203514 99 17 0.9 5.2 0.00 0.00 0.00 49 1014.0
20260905203414 99 26 0.9 5.2 0.00 0.00 0.00 50 1014.0
20260905203315 99 349 0.9 5.2 0.00 0.00 0.00 50 1014.0
20260905203216 98 349 0.9 5.2 0.00 0.00 0.00 51 1014.0
20260905203143 98 325 0.9 5.2 0.00 0.00 0.00 50 1014.0
20260905203131 98 350 0.9 5.2 0.00 0.00 0.00 51 1014.0
20260905202915 98 324 0.9 5.2 0.00 0.00 0.00 50 1014.0
20260905202815 98 327 0.9 4.3 0.00 0.00 0.00 50 1014.0
20260905202716 98 5 0.9 4.3 0.00 0.00 0.00 49 1014.0
20260905202614 98 5 0.9 4.3 0.00 0.00 0.00 50 1014.1
20260905202514 98 5 0.9 4.3 0.00 0.00 0.00 49 1014.2
20260905202416 98 5 0.9 4.3 0.00 0.00 0.00 49 1014.1
20260905202315 98 24 0.9 4.3 0.00 0.00 0.00 49 1014.2
20260905202215 98 318 1.7 4.3 0.00 0.00 0.00 50 1014.2
20260905202114 98 318 1.7 4.3 0.00 0.00 0.00 49 1014.2
20260905202039 98 317 1.7 4.3 0.00 0.00 0.00 49 1014.2
20260905202028 98 318 1.7 4.3 0.00 0.00 0.00 49 1014.1
20260905201814 98 19 1.7 4.3 0.00 0.00 0.00 50 1014.2
20260905201713 98 302 1.7 4.3 0.00 0.00 0.00 49 1014.2
20260905201609 98 302 1.7 4.3 0.00 0.00 0.00 48 1014.2
20260905201508 98 300 1.7 4.3 0.00 0.00 0.00 48 1014.2
20260905201408 98 299 1.7 4.3 0.00 0.00 0.00 49 1014.3
20260905201308 98 340 0.9 4.3 0.00 0.00 0.00 51 1014.3
20260905201209 98 344 0.9 4.3 0.00 0.00 0.00 49 1014.3
20260905201109 98 329 0.9 4.3 0.00 0.00 0.00 48 1014.3
20260905201005 98 312 0.9 3.5 0.00 0.00 0.00 49 1014.3
20260905200902 98 312 0.9 3.5 0.00 0.00 0.00 49 1014.4
20260905200804 98 312 0.9 3.5 0.00 0.00 0.00 49 1014.5
20260905200704 98 315 0.9 3.5 0.00 0.00 0.00 49 1014.4
20260905200601 98 320 0.9 3.5 0.00 0.00 0.00 50 1014.4
20260905200458 98 321 1.7 3.5 0.00 0.00 0.00 50 1014.4
20260905200425 98 338 1.7 4.3 0.00 0.00 0.00 49 1014.6
20260905200413 98 337 1.7 3.5 0.00 0.00 0.00 50 1014.4
20260905200157 98 337 1.7 4.3 0.00 0.00 0.00 50 1014.5
20260905200055 98 311 1.7 4.3 0.00 0.00 0.00 50 1014.6
20260905195949 98 13 1.7 4.3 0.00 0.00 0.00 50 1014.5
20260905195917 99 296 1.7 4.3 0.00 0.00 0.00 50 1014.6
20260905195906 99 342 1.7 4.3 0.00 0.00 0.00 49 1014.6
20260905195734 99 327 1.7 4.3 0.00 0.00 0.00 49 1014.5
20260905195729 99 347 1.7 4.3 0.00 0.00 0.00 49 1014.6
20260905195715 99 355 1.7 4.3 0.00 0.00 0.00 49 1014.6
20260905195339 99 340 1.7 4.3 0.00 0.00 0.00 48 1014.5
20260905195240 99 340 1.7 4.3 0.00 0.00 0.00 48 1014.6
20260905195209 99 17 1.7 4.3 0.00 0.00 0.00 48 1014.6
20260905195157 99 17 1.7 4.3 0.00 0.00 0.00 48 1014.6
20260905194934 100 17 1.7 4.3 0.00 0.00 0.00 48 1014.6
20260905194834 100 18 1.7 4.3 0.00 0.00 0.00 47 1014.8
20260905194734 100 355 1.7 8.7 0.00 0.00 0.00 48 1014.8
20260905194633 100 277 1.7 8.7 0.00 0.00 0.00 48 1014.8
20260905194555 100 275 1.7 8.7 0.00 0.00 0.00 47 1014.8
20260905194545 100 265 1.7 8.7 0.00 0.00 0.00 47 1014.7
20260905194328 100 299 0.9 8.7 0.00 0.00 0.00 47 1014.7
20260905194227 100 316 0.9 8.7 0.00 0.00 0.00 47 1014.8
20260905194126 100 316 0.9 8.7 0.00 0.00 0.00 47 1014.7
20260905194023 100 316 0.9 8.7 0.00 0.00 0.00 48 1014.8
20260905193918 100 9 0.9 8.7 0.00 0.00 0.00 47 1014.7
20260905193818 100 9 1.7 8.7 0.00 0.00 0.00 48 1014.7
20260905193717 99 22 1.7 8.7 0.00 0.00 0.00 48 1014.8
20260905193616 99 170 1.7 8.7 0.00 0.00 0.00 48 1014.8
20260905193538 99 169 1.7 8.7 0.00 0.00 0.00 50 1015.0
20260905193528 99 167 1.7 8.7 0.00 0.00 0.00 47 1014.8
20260905193310 99 170 1.7 8.7 0.00 0.00 0.00 52 1014.9
20260905193210 99 172 1.7 8.7 0.00 0.00 0.00 49 1015.0
20260905193109 99 173 1.7 8.7 0.00 0.00 0.00 49 1015.0
20260905193010 99 166 1.7 8.7 0.00 0.00 0.00 49 1015.0
20260905192905 99 338 1.7 8.7 0.00 0.00 0.00 49 1015.1
20260905192829 99 320 1.7 5.2 0.00 0.00 0.00 50 1015.0
20260905192819 99 355 1.7 8.7 0.00 0.00 0.00 49 1015.1
20260905192628 98 84 0.9 5.2 0.00 0.00 0.00 49 1015.2
20260905192615 99 85 0.9 5.2 0.00 0.00 0.00 50 1015.1
20260905192354 98 302 0.9 5.2 0.00 0.00 0.00 50 1015.2
20260905192255 98 302 0.9 5.2 0.00 0.00 0.00 50 1015.2
20260905192154 98 301 0.9 5.2 0.00 0.00 0.00 49 1015.2
20260905192055 98 300 0.9 5.2 0.00 0.00 0.00 49 1015.2
20260905191954 98 265 0.9 3.5 0.00 0.00 0.00 50 1015.2
20260905191915 98 281 0.9 4.3 0.00 0.00 0.00 50 1015.4
20260905191903 98 182 0.9 4.3 0.00 0.00 0.00 50 1015.5
20260905191645 98 281 0.9 4.3 0.00 0.00 0.00 50 1015.5
20260905191543 98 281 0.9 4.3 0.00 0.00 0.00 50 1015.4
20260905191441 98 287 0.9 4.3 0.00 0.00 0.00 52 1015.4
20260905191404 98 312 0.9 4.3 0.00 0.00 0.00 50 1015.4
20260905191352 98 287 0.9 4.3 0.00 0.00 0.00 50 1015.4
20260905191135 98 326 0.9 4.3 0.00 0.00 0.00 52 1015.4
20260905191036 98 22 0.9 4.3 0.00 0.00 0.00 53 1015.4
20260905190936 97 22 0.9 4.3 0.00 0.00 0.00 52 1015.5
20260905190835 97 22 0.9 4.3 0.00 0.00 0.00 52 1015.4
20260905190801 98 22 0.9 4.3 0.00 0.00 0.00 52 1015.5
20260905190749 97 22 0.9 4.3 0.00 0.00 0.00 52 1015.5
20260905190557 98 23 1.7 4.3 0.00 0.00 0.00 51 1015.7
20260905190546 98 22 1.7 4.3 0.00 0.00 0.00 51 1015.5
20260905190328 98 0 1.7 4.3 0.00 0.00 0.00 49 1015.5
20260905190228 98 0 1.7 4.3 0.00 0.00 0.00 50 1015.5
20260905190128 98 5 1.7 4.3 0.00 0.00 0.00 51 1015.5
20260905190026 98 9 0.9 4.3 0.00 0.00 0.00 51 1015.7
20260905185923 98 296 0.9 4.3 0.00 0.00 0.00 50 1015.7
20260905185818 98 284 1.7 4.3 0.00 0.00 0.00 50 1015.7
20260905185718 98 210 1.7 4.3 0.00 0.00 0.00 50 1015.7
20260905185617 99 210 1.7 4.3 0.00 0.00 0.00 49 1015.7
20260905185516 99 199 1.7 4.3 0.00 0.00 0.00 49 1015.7
20260905185413 99 194 1.7 4.3 0.00 0.00 0.00 49 1015.8
20260905185307 99 193 1.7 4.3 0.00 0.00 0.00 49 1015.7
20260905185208 99 193 1.7 4.3 0.00 0.00 0.00 49 1015.7
20260905185108 99 310 1.7 4.3 0.00 0.00 0.00 48 1015.7
20260905185008 99 311 1.7 4.3 0.00 0.00 0.00 48 1015.5
20260905184906 99 306 1.7 4.3 0.00 0.00 0.00 49 1015.7
20260905184804 99 324 1.7 4.3 0.00 0.00 0.00 50 1015.7
20260905184704 99 320 1.7 4.3 0.00 0.00 0.00 51 1015.8
20260905184603 99 27 1.7 3.5 0.00 0.00 0.00 49 1015.7
20260905184503 99 27 0.9 3.5 0.00 0.00 0.00 50 1015.7
20260905184359 99 27 0.9 3.5 0.00 0.00 0.00 51 1015.7
20260905184258 99 27 1.7 3.5 0.00 0.00 0.00 50 1015.7
20260905184158 98 27 1.7 3.5 0.00 0.00 0.00 50 1015.7
20260905184058 98 28 0.9 3.5 0.00 0.00 0.00 53 1015.5
20260905183956 98 34 0.9 3.5 0.00 0.00 0.00 52 1015.7
20260905183854 98 34 0.9 3.5 0.00 0.00 0.00 51 1015.7
20260905183753 98 34 0.9 3.5 0.00 0.00 0.00 51 1015.7
20260905183653 98 21 0.9 3.5 0.00 0.00 0.00 51 1015.8
20260905183554 98 21 0.9 3.5 0.00 0.00 0.00 52 1015.8
20260905183454 98 22 0.9 4.3 0.00 0.00 0.00 51 1015.8
20260905183353 98 22 0.9 4.3 0.00 0.00 0.00 53 1015.8
20260905183321 98 17 0.9 4.3 0.00 0.00 0.00 52 1015.9
20260905183310 98 17 0.9 4.3 0.00 0.00 0.00 53 1015.9
20260905183055 97 17 0.9 4.3 0.00 0.00 0.00 51 1015.9
20260905182952 97 17 0.9 4.3 0.00 0.00 0.00 50 1015.9
20260905182852 97 355 0.9 4.3 0.00 0.00 0.00 52 1015.9
20260905182751 97 137 0.9 4.3 0.00 0.00 0.00 52 1015.9
20260905182715 97 138 0.9 4.3 0.00 0.00 0.00 52 1015.9
20260905182704 97 136 0.9 4.3 0.00 0.00 0.00 53 1015.9
20260905182446 97 138 1.7 4.3 0.00 0.00 0.00 52 1016.0
20260905182347 97 263 1.7 4.3 0.00 0.00 0.00 52 1015.9
20260905182315 97 206 1.7 4.3 0.00 0.00 0.00 52 1015.9
20260905182305 97 252 1.7 4.3 0.00 0.00 0.00 52 1016.0
20260905182043 97 206 1.7 4.3 0.00 0.00 0.00 51 1016.0
20260905181939 97 290 1.7 4.3 0.00 0.00 0.00 51 1016.0
20260905181840 97 290 1.7 4.3 0.00 0.00 0.00 52 1016.1
20260905181741 97 290 1.7 4.3 0.00 0.00 0.00 52 1016.1
20260905181640 97 300 1.7 4.3 0.00 0.00 0.00 52 1016.1
20260905181534 97 341 1.7 4.3 0.00 0.00 0.00 53 1016.1
20260905181503 97 13 0.9 4.3 0.00 0.00 0.00 53 1016.1
20260905181450 97 11 1.7 4.3 0.00 0.00 0.00 52 1016.1
20260905181301 97 14 1.7 4.3 0.00 0.00 0.00 51 1016.1
20260905181249 97 14 1.7 4.3 0.00 0.00 0.00 52 1016.2
20260905181028 97 5 1.7 4.3 0.00 0.00 0.00 52 1016.1
20260905180927 97 24 0.9 4.3 0.00 0.00 0.00 52 1016.2
20260905180829 97 24 0.9 4.3 0.00 0.00 0.00 52 1016.1
20260905180726 96 33 0.9 4.3 0.00 0.00 0.00 53 1016.2
20260905180650 96 36 0.9 4.3 0.00 0.00 0.00 54 1016.2
20260905180638 96 36 0.9 4.3 0.00 0.00 0.00 54 1016.2
20260905180422 96 36 0.9 4.3 0.00 0.00 0.00 52 1016.2
20260905180344 96 36 1.7 4.3 0.00 0.00 0.00 53 1016.3
20260905180334 96 36 0.9 4.3 0.00 0.00 0.00 53 1016.2
20260905180119 96 33 1.7 4.3 0.00 0.00 0.00 52 1016.2
20260905180021 96 24 1.7 4.3 0.00 0.00 0.00 53 1016.3
20260905175947 96 23 1.7 4.3 0.00 0.00 0.00 53 1016.3
20260905175935 96 23 1.7 4.3 0.00 0.00 0.00 53 1016.3
20260905175719 96 23 1.7 4.3 0.00 0.00 0.00 53 1016.3
20260905175619 96 23 1.7 4.3 0.00 0.00 0.00 53 1016.3
20260905175541 96 38 1.7 4.3 0.00 0.00 0.00 54 1016.4
20260905175528 96 38 1.7 4.3 0.00 0.00 0.00 54 1016.4
20260905175342 96 39 1.7 4.3 0.00 0.00 0.00 53 1016.4
20260905175329 96 39 1.7 4.3 0.00 0.00 0.00 53 1016.4
20260905175114 96 34 0.9 4.3 0.00 0.00 0.00 53 1016.5
20260905175014 96 355 0.9 3.5 0.00 0.00 0.00 53 1016.4
20260905174912 96 319 0.9 2.6 0.00 0.00 0.00 53 1016.4
20260905174813 96 316 0.9 4.3 0.00 0.00 0.00 53 1016.4
20260905174709 96 298 0.9 4.3 0.00 0.00 0.00 55 1016.5
20260905174610 96 294 0.9 4.3 0.00 0.00 0.00 56 1016.4
20260905174508 96 287 1.7 4.3 0.00 0.00 0.00 57 1016.4
20260905174405 96 287 1.7 4.3 0.00 0.00 0.00 56 1016.4
20260905174305 96 287 1.7 4.3 0.00 0.00 0.00 55 1016.4
20260905174204 96 287 1.7 7.0 0.00 0.00 0.00 55 1016.4
20260905174104 96 287 1.7 7.0 0.00 0.00 0.00 56 1016.5
20260905174003 96 287 1.7 7.0 0.00 0.00 0.00 55 1016.4
20260905173904 96 284 1.7 7.0 0.00 0.00 0.00 55 1016.4
20260905173758 96 285 0.9 7.0 0.00 0.00 0.00 55 1016.4
20260905173658 96 345 0.9 7.0 0.00 0.00 0.00 56 1016.5
20260905173558 96 304 0.9 7.0 0.00 0.00 0.00 57 1016.4
20260905173525 96 302 0.9 7.0 0.00 0.00 0.00 57 1016.5
20260905173513 96 304 0.9 7.0 0.00 0.00 0.00 56 1016.5
20260905173251 96 304 1.7 7.0 0.00 0.00 0.00 55 1016.5
20260905173151 95 302 1.7 7.0 0.00 0.00 0.00 56 1016.4
20260905173051 95 299 1.7 7.0 0.00 0.00 0.00 56 1016.5
20260905172951 95 299 1.7 7.0 0.00 0.00 0.00 55 1016.5
20260905172851 95 300 2.6 7.0 0.00 0.00 0.00 56 1016.6
20260905172749 95 300 1.7 7.0 0.00 0.00 0.00 56 1016.6
20260905172646 95 302 1.7 7.0 0.00 0.00 0.00 56 1016.6
20260905172543 95 302 1.7 7.0 0.00 0.00 0.00 56 1016.6
20260905172510 95 300 1.7 7.0 0.00 0.00 0.00 55 1016.6
20260905172457 95 302 2.6 7.0 0.00 0.00 0.00 56 1016.6
20260905172236 95 45 2.6 7.0 0.00 0.00 0.00 55 1016.6
20260905172202 95 39 1.7 7.8 0.00 0.00 0.00 56 1016.7
20260905172151 95 61 1.7 7.8 0.00 0.00 0.00 56 1016.7
20260905172003 95 355 1.7 7.8 0.00 0.00 0.00 59 1016.8
20260905171951 95 32 1.7 7.8 0.00 0.00 0.00 57 1016.6
20260905171731 95 330 1.7 7.8 0.00 0.00 0.00 58 1016.7
20260905171629 94 330 1.7 7.8 0.00 0.00 0.00 57 1016.7
20260905171530 94 278 1.7 7.8 0.00 0.00 0.00 58 1016.8
20260905171429 94 347 1.7 7.8 0.00 0.00 0.00 58 1016.9
20260905171329 94 349 1.7 7.8 0.00 0.00 0.00 58 1016.9
20260905171225 94 303 0.9 7.8 0.00 0.00 0.00 60 1016.9
20260905171124 94 25 0.9 4.3 0.00 0.00 0.00 59 1016.8
20260905171021 94 24 0.9 4.3 0.00 0.00 0.00 61 1016.9
20260905170922 94 348 0.9 4.3 0.00 0.00 0.00 62 1016.9
20260905170820 94 348 0.9 4.3 0.00 0.00 0.00 61 1016.9
20260905170715 94 348 0.9 4.3 0.00 0.00 0.00 61 1017.0
20260905170614 94 0 0.9 4.3 0.00 0.00 0.00 62 1016.9
20260905170514 93 355 0.9 3.5 0.00 0.00 0.00 61 1016.9
20260905170413 93 355 0.9 3.5 0.00 0.00 0.00 62 1016.9
20260905170314 93 355 0.9 3.5 0.00 0.00 0.00 62 1017.0
20260905170213 93 355 0.9 3.5 0.00 0.00 0.00 61 1016.9
20260905170112 93 343 0.9 3.5 0.00 0.00 0.00 61 1016.9
20260905170012 93 343 0.9 3.5 0.00 0.00 0.00 61 1016.9
20260905165910 93 343 0.9 3.5 0.00 0.00 0.00 61 1016.9
20260905165808 93 340 0.9 3.5 0.00 0.00 0.00 62 1016.9
20260905165704 93 326 0.9 3.5 0.00 0.00 0.00 63 1016.9
20260905165630 93 322 0.9 3.5 0.00 0.00 0.00 63 1017.0
20260905165617 93 323 0.9 3.5 0.00 0.00 0.00 63 1017.0
20260905165359 93 314 0.9 3.5 0.00 0.00 0.00 64 1017.0
20260905165259 93 79 0.9 1.7 0.00 0.00 0.00 65 1016.9
20260905165154 92 79 0.9 1.7 0.00 0.00 0.00 66 1017.0
20260905165052 92 80 0.9 1.7 0.00 0.00 0.00 65 1017.0
20260905164953 92 80 0.9 1.7 0.00 0.00 0.00 66 1017.0
20260905164851 92 80 0.9 1.7 0.00 0.00 0.00 66 1017.0
20260905164752 92 80 0.9 1.7 0.00 0.00 0.00 67 1017.0
20260905164650 91 79 0.9 1.7 0.00 0.00 0.00 66 1017.1
20260905164550 91 72 0.9 1.7 0.00 0.00 0.00 65 1017.1
20260905164515 91 340 0.9 1.7 0.00 0.00 0.00 65 1017.2
20260905164503 91 340 0.9 1.7 0.00 0.00 0.00 65 1017.1
20260905164246 91 340 0.9 1.7 0.00 0.00 0.00 65 1017.1
20260905164141 91 340 0.9 1.7 0.00 0.00 0.00 66 1017.1
20260905164039 91 340 0.9 1.7 0.00 0.00 0.00 66 1017.3
20260905163940 91 340 0.9 3.5 0.00 0.00 0.00 67 1017.2
20260905163837 91 340 0.9 3.5 0.00 0.00 0.00 67 1017.2
20260905163735 91 340 0.9 3.5 0.00 0.00 0.00 67 1017.3
20260905163629 91 340 0.9 3.5 0.00 0.00 0.00 66 1017.3
20260905163555 91 340 0.9 3.5 0.00 0.00 0.00 66 1017.3
20260905163544 91 340 0.9 3.5 0.00 0.00 0.00 67 1017.2
20260905163330 91 340 0.9 3.5 0.00 0.00 0.00 66 1017.3
20260905163252 90 340 0.9 3.5 0.00 0.00 0.00 66 1017.3
20260905163241 90 340 0.9 3.5 0.00 0.00 0.00 66 1017.3
20260905163024 90 338 0.9 3.5 0.00 0.00 0.00 66 1017.3
20260905162923 90 338 0.9 3.5 0.00 0.00 0.00 66 1017.4
20260905162824 90 338 0.9 3.5 0.00 0.00 0.00 67 1017.4
20260905162724 90 338 0.9 3.5 0.00 0.00 0.00 66 1017.4
20260905162649 90 0 0.9 3.5 0.00 0.00 0.00 67 1017.4
20260905162637 90 341 0.9 3.5 0.00 0.00 0.00 68 1017.5
20260905162422 90 0 0.9 3.5 0.00 0.00 0.00 69 1017.4
20260905162320 90 327 0.9 3.5 0.00 0.00 0.00 67 1017.4
20260905162220 90 329 0.9 3.5 0.00 0.00 0.00 66 1017.4
20260905162118 90 333 0.9 3.5 0.00 0.00 0.00 67 1017.4
20260905162015 90 291 0.9 3.5 0.00 0.00 0.00 68 1017.4
20260905161916 90 291 0.9 3.5 0.00 0.00 0.00 69 1017.3
20260905161814 90 291 0.9 3.5 0.00 0.00 0.00 68 1017.4
20260905161738 90 290 0.9 3.5 0.00 0.00 0.00 70 1017.4
20260905161727 90 290 0.9 3.5 0.00 0.00 0.00 70 1017.4
20260905161514 90 290 0.9 3.5 0.00 0.00 0.00 69 1017.4
20260905161438 90 290 0.9 3.5 0.00 0.00 0.00 69 1017.3
20260905161428 90 290 0.9 3.5 0.00 0.00 0.00 69 1017.4
20260905161211 90 290 0.9 3.5 0.00 0.00 0.00 68 1017.3
20260905161112 90 260 0.9 3.5 0.00 0.00 0.00 68 1017.4
20260905161011 90 257 0.9 3.5 0.00 0.00 0.00 69 1017.4
20260905160911 90 289 0.9 3.5 0.00 0.00 0.00 70 1017.4
20260905160812 89 329 0.9 3.5 0.00 0.00 0.00 69 1017.4
20260905160711 89 338 0.9 3.5 0.00 0.00 0.00 69 1017.4
20260905160610 89 338 0.9 3.5 0.00 0.00 0.00 68 1017.3
20260905160508 89 338 0.9 3.5 0.00 0.00 0.00 68 1017.4
20260905160403 89 338 0.9 3.5 0.00 0.00 0.00 69 1017.4
20260905160302 89 338 0.9 3.5 0.00 0.00 0.00 68 1017.4
20260905160202 89 339 0.9 3.5 0.00 0.00 0.00 68 1017.4
20260905160002 89 327 0.9 3.5 0.00 0.00 0.00 68 1017.4
20260905155902 89 327 0.9 3.5 0.00 0.00 0.00 70 1017.5
20260905155800 89 327 0.9 3.5 0.00 0.00 0.00 70 1017.4
20260905155657 89 327 0.9 3.5 0.00 0.00 0.00 71 1017.4
20260905155558 89 327 0.9 3.5 0.00 0.00 0.00 71 1017.4
20260905155455 89 327 0.9 3.5 0.00 0.00 0.00 71 1017.4
20260905155419 89 187 0.9 1.7 0.00 0.00 0.00 72 1017.4
20260905155406 89 327 0.9 2.6 0.00 0.00 0.00 72 1017.3
20260905155149 89 187 0.9 1.7 0.00 0.00 0.00 73 1017.3
20260905155047 89 187 0.9 1.7 0.00 0.00 0.00 72 1017.3
20260905154946 88 187 0.9 1.7 0.00 0.00 0.00 72 1017.3
20260905154841 88 187 0.9 1.7 0.00 0.00 0.00 72 1017.3
20260905154739 88 187 0.9 2.6 0.00 0.00 0.00 73 1017.3
20260905154640 88 187 0.9 2.6 0.00 0.00 0.00 72 1017.3
20260905154540 88 187 0.9 2.6 0.00 0.00 0.00 71 1017.4
20260905154440 88 187 0.9 2.6 0.00 0.00 0.00 71 1017.3
20260905154333 88 187 0.9 2.6 0.00 0.00 0.00 71 1017.3
20260905154234 88 186 0.9 2.6 0.00 0.00 0.00 72 1017.4
20260905154134 88 186 0.9 2.6 0.00 0.00 0.00 73 1017.4
20260905154034 88 185 0.9 2.6 0.00 0.00 0.00 72 1017.4
20260905153934 87 185 0.9 2.6 0.00 0.00 0.00 71 1017.3
20260905153829 87 185 0.9 2.6 0.00 0.00 0.00 70 1017.3
20260905153728 87 185 0.9 2.6 0.00 0.00 0.00 70 1017.4
20260905153625 87 185 0.9 2.6 0.00 0.00 0.00 71 1017.3
20260905153539 87 185 0.9 2.6 0.00 0.00 0.00 71 1017.4
20260905153534 87 185 0.9 2.6 0.00 0.00 0.00 71 1017.5
20260905153526 87 185 0.9 2.6 0.00 0.00 0.00 71 1017.4
20260905153519 87 185 0.9 2.6 0.00 0.00 0.00 71 1017.5
20260905153503 87 185 0.9 2.6 0.00 0.00 0.00 71 1017.4
20260905153046 87 185 0.9 2.6 0.00 0.00 0.00 72 1017.6
20260905153033 87 185 0.9 2.6 0.00 0.00 0.00 72 1017.5
20260905152817 87 185 0.9 2.6 0.00 0.00 0.00 73 1017.5
20260905152718 87 185 0.9 1.7 0.00 0.00 0.00 75 1017.6
20260905152618 86 185 0.9 1.7 0.00 0.00 0.00 74 1017.5
20260905152542 86 185 0.0 1.7 0.00 0.00 0.00 75 1017.5
20260905152532 86 185 0.9 1.7 0.00 0.00 0.00 73 1017.5
20260905152317 86 185 0.0 1.7 0.00 0.00 0.00 74 1017.5
20260905152217 86 185 0.0 1.7 0.00 0.00 0.00 73 1017.5
20260905152118 86 185 0.0 1.7 0.00 0.00 0.00 73 1017.4
20260905152016 86 185 0.0 1.7 0.00 0.00 0.00 72 1017.5
20260905151915 86 185 0.0 1.7 0.00 0.00 0.00 73 1017.6
20260905151842 85 185 0.0 1.7 0.00 0.00 0.00 74 1017.5
20260905151830 85 185 0.0 1.7 0.00 0.00 0.00 73 1017.5
20260905151616 85 185 0.0 1.7 0.00 0.00 0.00 75 1017.5
20260905151513 85 185 0.0 1.7 0.00 0.00 0.00 75 1017.6
20260905151413 85 185 0.0 1.7 0.00 0.00 0.00 75 1017.6
20260905151314 85 185 0.0 1.7 0.00 0.00 0.00 75 1017.6
20260905151213 85 185 0.0 1.7 0.00 0.00 0.00 75 1017.6
20260905151114 85 185 0.0 1.7 0.00 0.00 0.00 75 1017.6
20260905151013 85 185 0.0 1.7 0.00 0.00 0.00 75 1017.5
20260905150913 85 185 0.0 1.7 0.00 0.00 0.00 76 1017.5
20260905150813 85 185 0.9 1.7 0.00 0.00 0.00 76 1017.5
20260905150742 85 185 0.9 1.7 0.00 0.00 0.00 77 1017.5
20260905150729 85 185 0.9 1.7 0.00 0.00 0.00 77 1017.5
20260905150513 84 185 0.9 1.7 0.00 0.00 0.00 76 1017.6
20260905150414 84 185 0.9 1.7 0.00 0.00 0.00 76 1017.5
20260905150313 84 182 0.9 1.7 0.00 0.00 0.00 75 1017.5
20260905150239 84 182 0.9 1.7 0.00 0.00 0.00 75 1017.6
20260905150227 84 182 0.9 1.7 0.00 0.00 0.00 75 1017.6
20260905150014 84 182 0.0 1.7 0.00 0.00 0.00 76 1017.6
20260905145939 84 182 0.0 1.7 0.00 0.00 0.00 77 1017.6
20260905145929 84 182 0.0 1.7 0.00 0.00 0.00 77 1017.5
20260905145714 84 182 0.0 1.7 0.00 0.00 0.00 78 1017.6
20260905145614 84 182 0.0 1.7 0.00 0.00 0.00 78 1017.6
20260905145515 84 182 0.0 0.9 0.00 0.00 0.00 79 1017.6
20260905145413 84 182 0.0 0.9 0.00 0.00 0.00 79 1017.6
20260905145314 83 182 0.0 0.9 0.00 0.00 0.00 79 1017.6
20260905145242 83 182 0.0 1.7 0.00 0.00 0.00 79 1017.6
20260905145231 83 182 0.0 1.7 0.00 0.00 0.00 78 1017.6
20260905145040 83 182 0.0 1.7 0.00 0.00 0.00 80 1017.6
20260905145028 83 182 0.0 1.7 0.00 0.00 0.00 80 1017.5
20260905144810 83 182 0.0 1.7 0.00 0.00 0.00 80 1017.7
20260905144708 83 182 0.0 1.7 0.00 0.00 0.00 79 1017.6
20260905144609 83 182 0.0 1.7 0.00 0.00 0.00 79 1017.6
20260905144510 83 182 0.0 1.7 0.00 0.00 0.00 79 1017.6
20260905144409 83 182 0.0 1.7 0.00 0.00 0.00 80 1017.6
20260905144333 83 182 0.0 1.7 0.00 0.00 0.00 81 1017.6
20260905144323 83 182 0.0 1.7 0.00 0.00 0.00 80 1017.7
20260905144109 82 182 0.0 1.7 0.00 0.00 0.00 82 1017.6
20260905144010 82 182 0.0 1.7 0.00 0.00 0.00 82 1017.6
20260905143956 82 182 0.0 1.7 0.00 0.00 0.00 82 1017.6
20260905143952 82 182 0.0 1.7 0.00 0.00 0.00 80 1017.6
20260905143938 82 182 0.0 1.7 0.00 0.00 0.00 82 1017.7
20260905143610 82 182 0.0 1.7 0.00 0.00 0.00 81 1017.7
20260905143508 82 182 0.0 1.7 0.00 0.00 0.00 81 1017.7
20260905143409 82 182 0.0 1.7 0.00 0.00 0.00 81 1017.7
20260905143309 82 182 0.0 1.7 0.00 0.00 0.00 82 1017.7
20260905143229 81 182 0.0 1.7 0.00 0.00 0.00 80 1017.7
20260905143225 81 182 0.0 1.7 0.00 0.00 0.00 80 1017.7
20260905143220 81 182 0.0 1.7 0.00 0.00 0.00 79 1017.7
20260905143210 82 182 0.0 1.7 0.00 0.00 0.00 81 1017.6
20260905143153 81 182 0.0 1.7 0.00 0.00 0.00 81 1017.7
20260905142709 81 182 0.0 1.7 0.00 0.00 0.00 80 1017.7
20260905142610 81 182 0.0 1.7 0.00 0.00 0.00 80 1017.6
20260905142511 81 182 0.0 1.7 0.00 0.00 0.00 80 1017.7
20260905142408 81 182 0.0 1.7 0.00 0.00 0.00 82 1017.7
20260905142310 81 182 0.0 1.7 0.00 0.00 0.00 83 1017.7
20260905142234 81 182 0.0 1.7 0.00 0.00 0.00 83 1017.7
20260905142223 81 182 0.0 1.7 0.00 0.00 0.00 84 1017.7
20260905142010 81 182 0.0 1.7 0.00 0.00 0.00 84 1017.7
20260905141936 80 182 0.0 1.7 0.00 0.00 0.00 82 1017.7
20260905141924 81 182 0.0 1.7 0.00 0.00 0.00 82 1017.7
20260905141709 80 182 0.0 1.7 0.00 0.00 0.00 83 1017.7
20260905141610 80 182 0.0 0.9 0.00 0.00 0.00 83 1017.7
20260905141555 80 182 0.0 1.7 0.00 0.00 0.00 84 1017.7
20260905141550 80 182 0.0 1.7 0.00 0.00 0.00 84 1017.7
20260905141536 80 182 0.0 1.7 0.00 0.00 0.00 84 1017.7
20260905141206 80 182 0.0 1.7 0.00 0.00 0.00 84 1017.7
20260905141104 80 182 0.0 1.7 0.00 0.00 0.00 84 1017.7
20260905141003 80 182 0.0 1.7 0.00 0.00 0.00 85 1017.7
20260905140900 80 182 0.0 1.7 0.00 0.00 0.00 84 1017.8
20260905140828 80 182 0.9 1.7 0.00 0.00 0.00 84 1017.7
20260905140815 80 182 0.9 1.7 0.00 0.00 0.00 84 1017.7
20260905140557 80 182 0.0 1.7 0.00 0.00 0.00 85 1017.7
20260905140448 80 182 0.0 1.7 0.00 0.00 0.00 85 1017.7
20260905140348 80 182 0.0 1.7 0.00 0.00 0.00 85 1017.7
20260905140248 80 182 0.0 1.7 0.00 0.00 0.00 85 1017.6
20260905140147 80 182 0.0 1.7 0.00 0.00 0.00 86 1017.6
20260905140114 79 182 0.0 1.7 0.00 0.00 0.00 86 1017.7
20260905135845 79 182 0.0 1.7 0.00 0.00 0.00 86 1017.6
20260905135745 79 182 0.0 1.7 0.00 0.00 0.00 86 1017.6
20260905135644 79 182 0.0 0.0 0.00 0.00 0.00 86 1017.6
20260905135542 79 182 0.0 0.0 0.00 0.00 0.00 86 1017.6
20260905135442 79 182 0.0 0.0 0.00 0.00 0.00 86 1017.6
20260905135338 79 182 0.0 0.0 0.00 0.00 0.00 87 1017.6
20260905135238 79 182 0.0 0.0 0.00 0.00 0.00 87 1017.6
20260905135137 79 182 0.0 0.0 0.00 0.00 0.00 86 1017.6
20260905135035 79 182 0.0 0.0 0.00 0.00 0.00 87 1017.6
20260905134924 79 182 0.0 0.9 0.00 0.00 0.00 88 1017.6
20260905134826 79 182 0.0 0.9 0.00 0.00 0.00 88 1017.6
20260905134725 79 182 0.0 0.9 0.00 0.00 0.00 89 1017.6
20260905134624 79 182 0.0 0.9 0.00 0.00 0.00 89 1017.6
20260905134523 79 182 0.0 0.9 0.00 0.00 0.00 89 1017.6
20260905134423 79 182 0.0 0.9 0.00 0.00 0.00 89 1017.7
20260905134322 79 182 0.0 0.9 0.00 0.00 0.00 89 1017.7
20260905134222 79 182 0.0 0.9 0.00 0.00 0.00 89 1017.8
20260905134119 79 182 0.0 0.9 0.00 0.00 0.00 89 1017.7
20260905134018 79 182 0.0 0.9 0.00 0.00 0.00 89 1017.7
20260905133915 79 182 0.0 0.9 0.00 0.00 0.00 89 1017.7
20260905133815 78 182 0.0 0.9 0.00 0.00 0.00 89 1017.7
20260905133715 78 182 0.0 0.9 0.00 0.00 0.00 89 1017.6
20260905133614 78 182 0.0 0.9 0.00 0.00 0.00 89 1017.7
20260905133510 78 182 0.0 0.9 0.00 0.00 0.00 89 1017.7
20260905133405 78 182 0.0 0.9 0.00 0.00 0.00 89 1017.7
20260905133305 78 182 0.0 0.9 0.00 0.00 0.00 90 1017.7
20260905133206 78 182 0.0 0.9 0.00 0.00 0.00 90 1017.8
20260905133103 78 182 0.0 0.9 0.00 0.00 0.00 90 1017.8
20260905133027 78 182 0.0 0.9 0.00 0.00 0.00 90 1017.8
20260905133016 78 182 0.0 0.9 0.00 0.00 0.00 90 1017.8
20260905132800 78 182 0.0 0.9 0.00 0.00 0.00 90 1017.8
20260905132658 78 182 0.0 0.9 0.00 0.00 0.00 90 1017.8
20260905132558 78 182 0.0 0.9 0.00 0.00 0.00 90 1017.8
20260905132515 78 182 0.0 0.9 0.00 0.00 0.00 90 1017.7
20260905132505 78 182 0.0 0.9 0.00 0.00 0.00 90 1017.8
20260905132315 78 182 0.0 0.9 0.00 0.00 0.00 91 1017.8
20260905132305 78 182 0.0 0.9 0.00 0.00 0.00 90 1017.8
20260905132049 78 182 0.0 0.9 0.00 0.00 0.00 91 1017.8
20260905131949 78 182 0.0 0.9 0.00 0.00 0.00 91 1017.8
20260905131845 78 182 0.0 0.9 0.00 0.00 0.00 90 1017.8
20260905131742 78 182 0.0 0.9 0.00 0.00 0.00 90 1017.8
20260905131730 77 182 0.0 0.9 0.00 0.00 0.00 90 1017.9
20260905131725 77 182 0.0 0.9 0.00 0.00 0.00 90 1017.8
20260905131710 77 182 0.0 0.9 0.00 0.00 0.00 90 1017.9
20260905131337 77 182 0.0 0.9 0.00 0.00 0.00 90 1017.8
20260905131303 77 182 0.0 0.9 0.00 0.00 0.00 90 1017.9
20260905131252 77 182 0.0 0.9 0.00 0.00 0.00 90 1017.9
20260905131035 77 182 0.0 0.9 0.00 0.00 0.00 90 1017.9
20260905130933 77 182 0.0 0.9 0.00 0.00 0.00 90 1017.8
20260905130857 77 182 0.0 0.0 0.00 0.00 0.00 90 1017.8
20260905130846 77 182 0.0 0.9 0.00 0.00 0.00 90 1017.8
20260905130629 77 182 0.0 0.0 0.00 0.00 0.00 90 1017.9
20260905130528 77 182 0.0 0.0 0.00 0.00 0.00 90 1017.9
20260905130427 77 182 0.0 0.0 0.00 0.00 0.00 90 1017.8
20260905130320 77 182 0.0 0.0 0.00 0.00 0.00 91 1017.8
20260905130217 77 182 0.0 0.0 0.00 0.00 0.00 91 1017.8
20260905130205 77 182 0.0 0.0 0.00 0.00 0.00 91 1017.8
20260905130200 76 182 0.0 0.0 0.00 0.00 0.00 91 1017.8
20260905130147 77 182 0.0 0.0 0.00 0.00 0.00 91 1017.8
20260905125813 76 182 0.0 0.0 0.00 0.00 0.00 91 1017.9
20260905125735 76 182 0.0 0.0 0.00 0.00 0.00 91 1017.8
20260905125724 76 182 0.0 0.0 0.00 0.00 0.00 91 1017.8
20260905125512 76 182 0.0 0.0 0.00 0.00 0.00 91 1017.8
20260905125437 76 182 0.0 0.0 0.00 0.00 0.00 91 1017.8
20260905125426 76 182 0.0 0.0 0.00 0.00 0.00 92 1017.8
20260905125209 76 182 0.0 0.0 0.00 0.00 0.00 91 1017.9
20260905125109 76 182 0.0 0.0 0.00 0.00 0.00 91 1018.0
20260905125031 76 182 0.0 0.0 0.00 0.00 0.00 91 1018.0
20260905125020 76 182 0.0 0.0 0.00 0.00 0.00 91 1018.0
20260905124756 76 182 0.0 2.6 0.00 0.00 0.00 91 1018.0
20260905124656 76 182 0.0 2.6 0.00 0.00 0.00 91 1018.0
20260905124621 76 182 0.0 2.6 0.00 0.00 0.00 91 1017.9
20260905124610 76 182 0.0 2.6 0.00 0.00 0.00 91 1018.0
20260905124413 76 182 0.0 2.6 0.00 0.00 0.00 91 1018.0
20260905124404 76 182 0.0 2.6 0.00 0.00 0.00 91 1018.0
20260905124149 76 182 0.0 2.6 0.00 0.00 0.00 91 1018.0
20260905124050 76 182 0.0 2.6 0.00 0.00 0.00 91 1017.9
20260905123949 76 182 0.0 2.6 0.00 0.00 0.00 91 1018.0
20260905123911 76 182 0.0 2.6 0.00 0.00 0.00 92 1018.0
20260905123901 76 182 0.0 2.6 0.00 0.00 0.00 91 1018.0
20260905123648 76 182 0.0 2.6 0.00 0.00 0.00 92 1018.0
20260905123547 76 182 0.0 2.6 0.00 0.00 0.00 92 1017.9
20260905123445 76 182 0.0 2.6 0.00 0.00 0.00 92 1018.0
20260905123344 76 182 0.0 2.6 0.00 0.00 0.00 92 1017.9
20260905123240 76 182 0.0 2.6 0.00 0.00 0.00 92 1017.9
20260905123137 76 178 0.0 2.6 0.00 0.00 0.00 92 1017.9
20260905123037 76 178 0.0 2.6 0.00 0.00 0.00 92 1017.9
20260905122936 76 178 0.0 2.6 0.00 0.00 0.00 92 1017.9
20260905122833 76 178 0.0 2.6 0.00 0.00 0.00 92 1017.9
20260905122728 75 177 0.0 1.7 0.00 0.00 0.00 92 1017.8
20260905122627 75 177 0.0 1.7 0.00 0.00 0.00 93 1017.8
20260905122527 75 177 0.0 1.7 0.00 0.00 0.00 93 1017.7
20260905122427 75 177 0.0 1.7 0.00 0.00 0.00 93 1017.7
20260905122328 75 177 0.0 1.7 0.00 0.00 0.00 93 1017.8
20260905122228 75 177 0.0 1.7 0.00 0.00 0.00 93 1017.8
20260905122124 75 177 0.0 1.7 0.00 0.00 0.00 93 1017.7
20260905122112 75 177 0.0 1.7 0.00 0.00 0.00 93 1017.7
20260905122107 75 177 0.0 1.7 0.00 0.00 0.00 93 1017.7
20260905122053 75 177 0.0 1.7 0.00 0.00 0.00 93 1017.7
20260905121717 75 177 0.0 1.7 0.00 0.00 0.00 93 1017.7
20260905121616 75 177 0.0 1.7 0.00 0.00 0.00 93 1017.7
20260905121516 75 177 0.0 1.7 0.00 0.00 0.00 93 1017.7
20260905121413 75 177 0.0 1.7 0.00 0.00 0.00 93 1017.7
20260905121311 75 177 0.0 1.7 0.00 0.00 0.00 92 1017.7
20260905121234 75 177 0.0 1.7 0.00 0.00 0.00 92 1017.7
20260905121224 75 177 0.0 1.7 0.00 0.00 0.00 92 1017.7
20260905121009 75 177 0.9 1.7 0.00 0.00 0.00 92 1017.7
20260905120907 75 177 0.9 1.7 0.00 0.00 0.00 92 1017.7
20260905120805 75 177 0.9 1.7 0.00 0.00 0.00 92 1017.7
20260905120706 75 177 0.9 1.7 0.00 0.00 0.00 92 1017.6
20260905120603 75 177 0.9 1.7 0.00 0.00 0.00 92 1017.5
20260905120502 75 177 0.9 1.7 0.00 0.00 0.00 93 1017.5
20260905120401 75 177 0.9 1.7 0.00 0.00 0.00 93 1017.4
20260905120259 75 175 0.0 1.7 0.00 0.00 0.00 93 1017.5
20260905120217 74 165 0.0 0.9 0.00 0.00 0.00 93 1017.5
20260905120204 74 165 0.0 1.7 0.00 0.00 0.00 93 1017.5
20260905115949 74 165 0.0 0.9 0.00 0.00 0.00 93 1017.4
20260905115849 74 165 0.0 0.9 0.00 0.00 0.00 93 1017.4
20260905115749 74 165 0.0 0.0 0.00 0.00 0.00 92 1017.4
20260905115646 74 165 0.0 0.0 0.00 0.00 0.00 92 1017.4
20260905115547 74 165 0.0 0.0 0.00 0.00 0.00 92 1017.5
20260905115448 74 165 0.0 0.0 0.00 0.00 0.00 92 1017.4
20260905115345 74 165 0.0 0.0 0.00 0.00 0.00 92 1017.5
20260905115243 74 165 0.0 0.0 0.00 0.00 0.00 92 1017.4
20260905115144 74 165 0.0 0.0 0.00 0.00 0.00 92 1017.5
20260905115041 74 165 0.0 0.0 0.00 0.00 0.00 92 1017.4
20260905114939 74 165 0.0 0.0 0.00 0.00 0.00 92 1017.4
20260905114839 74 165 0.0 0.0 0.00 0.00 0.00 92 1017.4
20260905114737 74 165 0.0 0.0 0.00 0.00 0.00 92 1017.4
20260905114628 74 165 0.0 0.9 0.00 0.00 0.00 92 1017.4
20260905114528 74 165 0.0 0.9 0.00 0.00 0.00 92 1017.4
20260905114453 74 165 0.0 0.9 0.00 0.00 0.00 92 1017.3
20260905114441 74 165 0.0 0.9 0.00 0.00 0.00 92 1017.3
20260905114227 74 165 0.0 0.9 0.00 0.00 0.00 92 1017.3
20260905114126 74 165 0.0 0.9 0.00 0.00 0.00 92 1017.3
20260905114025 74 165 0.0 0.9 0.00 0.00 0.00 92 1017.3
20260905113923 74 165 0.0 0.9 0.00 0.00 0.00 92 1017.2
20260905113823 74 165 0.0 0.9 0.00 0.00 0.00 91 1017.3
20260905113721 74 165 0.0 0.9 0.00 0.00 0.00 91 1017.3
20260905113621 74 165 0.0 0.9 0.00 0.00 0.00 91 1017.2
20260905113546 74 165 0.0 0.9 0.00 0.00 0.00 91 1017.2
20260905113535 74 165 0.0 0.9 0.00 0.00 0.00 91 1017.2
20260905113320 74 165 0.0 0.9 0.00 0.00 0.00 91 1017.2
20260905113314 74 165 0.0 0.9 0.00 0.00 0.00 91 1017.2
20260905113309 74 165 0.0 0.9 0.00 0.00 0.00 91 1017.1
20260905113254 74 165 0.0 0.0 0.00 0.00 0.00 91 1017.2
20260905113139 74 165 0.0 0.9 0.00 0.00 0.00 91 1017.1
20260905113126 74 165 0.0 0.0 0.00 0.00 0.00 91 1017.1
20260905113110 74 165 0.0 0.0 0.00 0.00 0.00 91 1017.2
20260905112949 74 165 0.0 0.9 0.00 0.00 0.00 91 1017.1
20260905112502 74 165 0.0 0.9 0.00 0.00 0.00 91 1017.2
20260905112404 74 165 0.0 0.9 0.00 0.00 0.00 91 1017.2
20260905112300 74 165 0.0 0.9 0.00 0.00 0.00 91 1017.2
20260905112159 74 165 0.0 0.9 0.00 0.00 0.00 91 1017.2
20260905112052 74 165 0.0 0.9 0.00 0.00 0.00 91 1017.2
20260905111953 74 165 0.0 0.9 0.00 0.00 0.00 91 1017.1
20260905111852 74 165 0.0 0.9 0.00 0.00 0.00 91 1017.1
20260905111752 74 165 0.0 0.9 0.00 0.00 0.00 91 1017.1
20260905111718 74 165 0.0 1.7 0.00 0.00 0.00 91 1017.1
20260905111706 74 165 0.0 1.7 0.00 0.00 0.00 91 1017.1
20260905111451 74 165 0.0 1.7 0.00 0.00 0.00 91 1017.1
20260905111351 74 165 0.0 1.7 0.00 0.00 0.00 91 1017.0
20260905111248 74 165 0.0 1.7 0.00 0.00 0.00 91 1017.0
20260905111149 74 165 0.0 1.7 0.00 0.00 0.00 91 1017.0
20260905111112 74 165 0.0 1.7 0.00 0.00 0.00 91 1017.0
20260905111107 74 165 0.0 1.7 0.00 0.00 0.00 90 1016.9
20260905111102 74 165 0.0 0.9 0.00 0.00 0.00 90 1017.0
20260905111052 74 165 0.0 1.7 0.00 0.00 0.00 91 1017.0
20260905111034 74 165 0.0 1.7 0.00 0.00 0.00 91 1017.0
20260905110613 74 165 0.0 0.9 0.00 0.00 0.00 90 1016.9
20260905110602 74 165 0.0 0.9 0.00 0.00 0.00 90 1017.0
20260905110345 74 165 0.0 0.0 0.00 0.00 0.00 89 1017.0
20260905110244 74 165 0.0 0.0 0.00 0.00 0.00 89 1017.0
20260905110144 74 165 0.0 0.0 0.00 0.00 0.00 89 1016.9
20260905110045 74 165 0.0 0.0 0.00 0.00 0.00 89 1016.9
20260905105945 74 165 0.0 0.0 0.00 0.00 0.00 89 1016.9
20260905105838 74 165 0.0 0.0 0.00 0.00 0.00 89 1016.9
20260905105739 74 165 0.0 0.0 0.00 0.00 0.00 89 1016.9
20260905105639 74 165 0.0 0.0 0.00 0.00 0.00 89 1017.0
20260905105539 74 165 0.0 0.0 0.00 0.00 0.00 89 1017.0
20260905105439 74 165 0.0 0.0 0.00 0.00 0.00 89 1016.9
20260905105340 74 165 0.0 0.0 0.00 0.00 0.00 89 1016.9
20260905105236 74 165 0.0 0.0 0.00 0.00 0.00 89 1016.9
20260905105137 74 165 0.0 0.0 0.00 0.00 0.00 89 1016.8
20260905105035 74 165 0.0 0.0 0.00 0.00 0.00 89 1016.9
20260905104933 74 165 0.0 0.0 0.00 0.00 0.00 89 1016.9
20260905104834 74 165 0.0 0.0 0.00 0.00 0.00 89 1016.9
20260905104730 75 165 0.0 0.0 0.00 0.00 0.00 89 1017.0
20260905104630 75 165 0.0 0.0 0.00 0.00 0.00 89 1016.8
20260905104556 74 165 0.0 0.0 0.00 0.00 0.00 89 1016.8
20260905104543 75 165 0.0 0.0 0.00 0.00 0.00 89 1016.9
20260905104327 74 165 0.0 0.0 0.00 0.00 0.00 89 1016.7
20260905104251 75 165 0.0 0.0 0.00 0.00 0.00 90 1016.7
20260905104240 74 165 0.0 0.0 0.00 0.00 0.00 90 1016.8
20260905104024 74 165 0.0 2.6 0.00 0.00 0.00 90 1016.7
20260905103950 74 165 0.0 2.6 0.00 0.00 0.00 90 1016.7
20260905103938 74 165 0.0 2.6 0.00 0.00 0.00 90 1016.8
20260905103723 74 165 0.0 2.6 0.00 0.00 0.00 90 1016.7
20260905103623 74 165 0.0 2.6 0.00 0.00 0.00 90 1016.7
20260905103521 74 165 0.0 2.6 0.00 0.00 0.00 90 1016.7
20260905103420 74 165 0.0 2.6 0.00 0.00 0.00 90 1016.7
20260905103319 74 165 0.0 2.6 0.00 0.00 0.00 90 1016.8
20260905103217 74 165 0.0 2.6 0.00 0.00 0.00 90 1016.8
20260905103117 74 165 0.0 2.6 0.00 0.00 0.00 90 1016.7
20260905103014 74 165 0.0 3.5 0.00 0.00 0.00 90 1016.7
20260905102915 74 165 0.0 3.5 0.00 0.00 0.00 90 1016.6
20260905102812 74 165 0.9 3.5 0.00 0.00 0.00 90 1016.8
20260905102711 74 165 0.9 3.5 0.00 0.00 0.00 90 1016.8
20260905102611 74 165 0.9 3.5 0.00 0.00 0.00 90 1016.8
20260905102508 74 165 0.9 3.5 0.00 0.00 0.00 90 1016.8
20260905102409 74 165 0.9 3.5 0.00 0.00 0.00 90 1016.8
20260905102308 74 165 0.9 3.5 0.00 0.00 0.00 90 1016.7
20260905102204 74 165 0.9 3.5 0.00 0.00 0.00 90 1016.8
20260905102104 74 165 0.9 3.5 0.00 0.00 0.00 90 1016.9
20260905102002 74 165 0.9 3.5 0.00 0.00 0.00 90 1016.8
20260905101903 74 165 0.9 3.5 0.00 0.00 0.00 90 1016.8
20260905101801 74 165 0.9 3.5 0.00 0.00 0.00 90 1016.8
20260905101658 74 165 0.9 3.5 0.00 0.00 0.00 90 1016.8
20260905101559 74 165 1.7 3.5 0.00 0.00 0.00 90 1016.7
20260905101457 74 165 0.9 3.5 0.00 0.00 0.00 90 1016.8
20260905101356 74 165 0.9 3.5 0.00 0.00 0.00 90 1016.7
20260905101256 74 165 1.7 3.5 0.00 0.00 0.00 90 1016.7
20260905101154 74 165 0.9 3.5 0.00 0.00 0.00 90 1016.7
20260905101120 74 165 1.7 3.5 0.00 0.00 0.00 90 1016.7
20260905101109 74 165 1.7 3.5 0.00 0.00 0.00 90 1016.7
20260905100854 74 165 1.7 3.5 0.00 0.00 0.00 90 1016.6
20260905100820 74 165 0.9 3.5 0.00 0.00 0.00 90 1016.7
20260905100810 74 165 1.7 3.5 0.00 0.00 0.00 90 1016.6
20260905100554 74 165 0.9 3.5 0.00 0.00 0.00 90 1016.6
20260905100455 74 165 0.9 3.5 0.00 0.00 0.00 90 1016.7
20260905100354 74 165 0.9 3.5 0.00 0.00 0.00 90 1016.6
20260905100254 74 165 0.9 3.5 0.00 0.00 0.00 90 1016.6
20260905100154 74 165 0.9 3.5 0.00 0.00 0.00 90 1016.7
20260905100122 74 165 0.9 3.5 0.00 0.00 0.00 90 1016.7
20260905100110 74 165 0.9 3.5 0.00 0.00 0.00 90 1016.7
20260905095850 74 167 0.9 3.5 0.00 0.00 0.00 90 1016.7
20260905095751 74 167 0.9 3.5 0.00 0.00 0.00 90 1016.6
20260905095717 74 167 0.9 3.5 0.00 0.00 0.00 90 1016.6
20260905095705 74 167 0.9 3.5 0.00 0.00 0.00 90 1016.6
20260905095450 74 167 0.9 3.5 0.00 0.00 0.00 90 1016.6
20260905095350 74 167 0.9 3.5 0.00 0.00 0.00 90 1016.7
20260905095316 74 167 0.9 3.5 0.00 0.00 0.00 90 1016.7
20260905095306 74 167 0.9 3.5 0.00 0.00 0.00 90 1016.7
20260905095051 74 167 0.9 3.5 0.00 0.00 0.00 90 1016.6
20260905094950 74 167 0.9 3.5 0.00 0.00 0.00 90 1016.6
20260905094850 74 167 0.9 3.5 0.00 0.00 0.00 90 1016.6
20260905094750 74 167 0.9 3.5 0.00 0.00 0.00 90 1016.6
20260905094718 74 167 0.9 3.5 0.00 0.00 0.00 90 1016.6
20260905094705 74 167 0.9 3.5 0.00 0.00 0.00 90 1016.6
20260905094450 74 167 0.9 2.6 0.00 0.00 0.00 90 1016.5
20260905094350 74 167 0.9 2.6 0.00 0.00 0.00 90 1016.4
20260905094249 74 167 0.9 2.6 0.00 0.00 0.00 90 1016.4
20260905094145 74 167 0.9 2.6 0.00 0.00 0.00 90 1016.4
20260905094045 74 167 0.9 2.6 0.00 0.00 0.00 90 1016.4
20260905093946 74 167 0.9 2.6 0.00 0.00 0.00 90 1016.4
20260905093908 74 167 0.9 2.6 0.00 0.00 0.00 91 1016.4
20260905093858 74 167 0.9 2.6 0.00 0.00 0.00 91 1016.4
20260905093643 74 168 0.9 1.7 0.00 0.00 0.00 91 1016.3
20260905093540 74 168 0.9 1.7 0.00 0.00 0.00 91 1016.4
20260905093441 74 168 0.9 1.7 0.00 0.00 0.00 91 1016.3
20260905093340 74 169 0.9 1.7 0.00 0.00 0.00 91 1016.4
20260905093240 74 168 0.9 1.7 0.00 0.00 0.00 91 1016.3
20260905093140 74 168 0.9 1.7 0.00 0.00 0.00 91 1016.3
20260905093041 74 168 0.9 1.7 0.00 0.00 0.00 91 1016.3
20260905092941 75 168 0.9 1.7 0.00 0.00 0.00 91 1016.3
20260905092841 75 168 0.9 1.7 0.00 0.00 0.00 91 1016.3
20260905092740 75 168 0.9 1.7 0.00 0.00 0.00 91 1016.3
20260905092640 75 168 0.9 1.7 0.00 0.00 0.00 90 1016.3
20260905092540 75 168 0.9 1.7 0.00 0.00 0.00 90 1016.3
20260905092441 75 168 0.9 1.7 0.00 0.00 0.00 90 1016.3
20260905092341 75 168 0.9 1.7 0.00 0.00 0.00 90 1016.2
20260905092238 75 168 0.9 1.7 0.00 0.00 0.00 90 1016.3
20260905092138 75 168 0.0 1.7 0.00 0.00 0.00 90 1016.4
20260905092038 75 168 0.0 1.7 0.00 0.00 0.00 90 1016.4
20260905091937 75 168 0.0 1.7 0.00 0.00 0.00 90 1016.4
20260905091836 75 168 0.0 1.7 0.00 0.00 0.00 90 1016.4
20260905091736 75 168 0.0 1.7 0.00 0.00 0.00 90 1016.3
20260905091636 75 168 0.0 1.7 0.00 0.00 0.00 90 1016.3
20260905091537 75 168 0.0 1.7 0.00 0.00 0.00 90 1016.3
20260905091436 75 168 0.0 0.9 0.00 0.00 0.00 90 1016.2
20260905091404 75 168 0.0 0.9 0.00 0.00 0.00 90 1016.3
20260905091352 75 168 0.0 0.9 0.00 0.00 0.00 90 1016.2
20260905091157 75 168 0.0 0.9 0.00 0.00 0.00 90 1016.2
20260905091152 75 168 0.0 0.9 0.00 0.00 0.00 90 1016.3
20260905091147 75 168 0.0 0.9 0.00 0.00 0.00 90 1016.3
20260905091138 75 168 0.0 0.9 0.00 0.00 0.00 90 1016.2
20260905091121 75 168 0.0 0.9 0.00 0.00 0.00 90 1016.2
20260905090636 75 168 0.0 1.7 0.00 0.00 0.00 90 1016.2
20260905090537 75 168 0.0 1.7 0.00 0.00 0.00 90 1016.3
20260905090436 75 168 0.0 1.7 0.00 0.00 0.00 90 1016.3
20260905090337 75 168 0.0 1.7 0.00 0.00 0.00 90 1016.3
20260905090302 75 168 0.0 1.7 0.00 0.00 0.00 90 1016.3
20260905090251 75 168 0.0 1.7 0.00 0.00 0.00 90 1016.3
20260905090037 75 168 0.0 1.7 0.00 0.00 0.00 90 1016.2
20260905085937 75 168 0.0 1.7 0.00 0.00 0.00 90 1016.2
20260905085836 75 168 0.0 1.7 0.00 0.00 0.00 90 1016.2
20260905085736 75 168 0.0 1.7 0.00 0.00 0.00 90 1016.2
20260905085635 75 168 0.0 1.7 0.00 0.00 0.00 90 1016.2
20260905085536 75 168 0.0 1.7 0.00 0.00 0.00 90 1016.2
20260905085437 75 168 0.0 1.7 0.00 0.00 0.00 90 1016.2
20260905085336 75 168 0.0 0.9 0.00 0.00 0.00 90 1016.2
20260905085237 75 168 0.0 0.9 0.00 0.00 0.00 90 1016.2
20260905085156 75 168 0.0 0.9 0.00 0.00 0.00 90 1016.2
20260905085146 75 168 0.0 0.9 0.00 0.00 0.00 90 1016.2
20260905084933 75 168 0.0 0.9 0.00 0.00 0.00 89 1016.2
20260905084832 75 168 0.0 0.9 0.00 0.00 0.00 89 1016.2
20260905084732 75 169 0.0 0.9 0.00 0.00 0.00 89 1016.1
20260905084631 75 168 0.0 0.9 0.00 0.00 0.00 89 1016.2
20260905084620 75 168 0.0 1.7 0.00 0.00 0.00 89 1016.2
20260905084616 76 168 0.9 1.7 0.00 0.00 0.00 89 1016.1
20260905084602 75 168 0.0 1.7 0.00 0.00 0.00 89 1016.2
20260905084232 75 168 0.9 3.5 0.00 0.00 0.00 89 1016.2
20260905084131 76 168 0.9 3.5 0.00 0.00 0.00 89 1016.2
20260905084033 75 168 0.9 3.5 0.00 0.00 0.00 89 1016.1
20260905083933 76 168 0.9 3.5 0.00 0.00 0.00 89 1016.2
20260905083831 76 168 0.9 3.5 0.00 0.00 0.00 90 1016.1
20260905083733 76 168 1.7 3.5 0.00 0.00 0.00 89 1016.1
20260905083633 76 168 1.7 3.5 0.00 0.00 0.00 90 1016.1
20260905083532 76 168 1.7 3.5 0.00 0.00 0.00 89 1016.2
20260905083433 76 168 1.7 3.5 0.00 0.00 0.00 90 1016.2
20260905083359 76 168 1.7 3.5 0.00 0.00 0.00 89 1016.2
20260905083347 76 168 1.7 3.5 0.00 0.00 0.00 90 1016.1
20260905083132 76 168 1.7 3.5 0.00 0.00 0.00 89 1016.2
20260905083032 76 168 1.7 3.5 0.00 0.00 0.00 89 1016.2
20260905082933 76 169 1.7 3.5 0.00 0.00 0.00 89 1016.3
20260905082832 76 169 1.7 3.5 0.00 0.00 0.00 89 1016.2
20260905082732 76 169 1.7 3.5 0.00 0.00 0.00 89 1016.3
20260905082632 76 170 1.7 3.5 0.00 0.00 0.00 89 1016.2
20260905082533 76 170 1.7 3.5 0.00 0.00 0.00 89 1016.2
20260905082431 76 170 1.7 3.5 0.00 0.00 0.00 89 1016.2
20260905082332 76 170 1.7 3.5 0.00 0.00 0.00 89 1016.3
20260905082233 76 170 1.7 3.5 0.00 0.00 0.00 89 1016.3
20260905082132 76 171 0.9 3.5 0.00 0.00 0.00 89 1016.2
20260905082032 76 172 0.9 2.6 0.00 0.00 0.00 89 1016.3
20260905081933 76 172 0.9 2.6 0.00 0.00 0.00 89 1016.2
20260905081828 76 172 0.9 2.6 0.00 0.00 0.00 89 1016.3
20260905081728 76 173 0.0 2.6 0.00 0.00 0.00 89 1016.4
20260905081628 76 173 0.0 1.7 0.00 0.00 0.00 89 1016.4
20260905081527 76 173 0.0 1.7 0.00 0.00 0.00 89 1016.4
20260905081424 76 173 0.0 2.6 0.00 0.00 0.00 88 1016.4
20260905081317 76 173 0.0 2.6 0.00 0.00 0.00 88 1016.4
20260905081219 76 173 0.0 2.6 0.00 0.00 0.00 88 1016.4
20260905081204 76 173 0.0 2.6 0.00 0.00 0.00 88 1016.4
20260905081159 76 173 0.0 2.6 0.00 0.00 0.00 88 1016.5
20260905081144 76 173 0.0 2.6 0.00 0.00 0.00 88 1016.4
20260905080815 76 173 0.0 2.6 0.00 0.00 0.00 88 1016.5
20260905080712 76 173 0.9 2.6 0.00 0.00 0.00 88 1016.5
20260905080613 76 173 0.9 2.6 0.00 0.00 0.00 88 1016.4
20260905080510 76 173 0.9 2.6 0.00 0.00 0.00 88 1016.5
20260905080409 76 173 0.9 2.6 0.00 0.00 0.00 88 1016.5
20260905080309 76 173 0.9 2.6 0.00 0.00 0.00 88 1016.5
20260905080205 77 173 0.9 2.6 0.00 0.00 0.00 88 1016.5
20260905080107 77 173 0.9 2.6 0.00 0.00 0.00 88 1016.4
20260905080006 77 173 0.9 2.6 0.00 0.00 0.00 87 1016.5
20260905075905 77 173 0.9 2.6 0.00 0.00 0.00 87 1016.4
20260905075806 77 173 0.9 2.6 0.00 0.00 0.00 87 1016.5
20260905075703 77 173 0.9 2.6 0.00 0.00 0.00 87 1016.5
20260905075629 77 173 0.9 2.6 0.00 0.00 0.00 87 1016.4
20260905075617 77 173 0.9 2.6 0.00 0.00 0.00 87 1016.5
20260905075402 77 173 0.0 2.6 0.00 0.00 0.00 87 1016.5
20260905075301 77 173 0.0 2.6 0.00 0.00 0.00 87 1016.4
20260905075158 77 173 0.0 2.6 0.00 0.00 0.00 87 1016.4
20260905075055 77 173 0.0 2.6 0.00 0.00 0.00 87 1016.4
20260905075020 77 173 0.0 2.6 0.00 0.00 0.00 86 1016.4
20260905075010 77 173 0.0 2.6 0.00 0.00 0.00 86 1016.5
20260905074753 77 173 0.0 2.6 0.00 0.00 0.00 86 1016.5
20260905074653 77 173 0.0 2.6 0.00 0.00 0.00 86 1016.5
20260905074616 77 173 0.9 2.6 0.00 0.00 0.00 86 1016.4
20260905074604 77 173 0.9 2.6 0.00 0.00 0.00 86 1016.5
20260905074348 77 173 0.9 2.6 0.00 0.00 0.00 86 1016.4
20260905074312 77 173 0.9 2.6 0.00 0.00 0.00 85 1016.5
20260905074300 77 173 0.9 2.6 0.00 0.00 0.00 85 1016.5
20260905074047 77 173 0.9 2.6 0.00 0.00 0.00 85 1016.5
20260905073944 77 173 0.9 2.6 0.00 0.00 0.00 84 1016.5
20260905073845 77 173 0.9 2.6 0.00 0.00 0.00 84 1016.4
20260905073742 77 173 0.9 2.6 0.00 0.00 0.00 84 1016.5
20260905073639 77 173 0.9 2.6 0.00 0.00 0.00 84 1016.5
20260905073603 77 195 0.0 2.6 0.00 0.00 0.00 84 1016.5
20260905073551 77 173 0.9 2.6 0.00 0.00 0.00 84 1016.5
20260905073421 77 198 0.0 2.6 0.00 0.00 0.00 84 1016.4
20260905073417 77 200 0.0 0.9 0.00 0.00 0.00 83 1016.5
20260905073402 77 195 0.0 2.6 0.00 0.00 0.00 84 1016.4
20260905073058 77 200 0.0 0.9 0.00 0.00 0.00 83 1016.5
20260905073046 77 200 0.0 0.9 0.00 0.00 0.00 83 1016.4
20260905072830 77 200 0.0 0.9 0.00 0.00 0.00 83 1016.5
20260905072731 77 200 0.0 0.9 0.00 0.00 0.00 83 1016.5
20260905072658 77 200 0.0 0.9 0.00 0.00 0.00 83 1016.4
20260905072646 77 200 0.0 0.9 0.00 0.00 0.00 83 1016.4
20260905072454 77 200 0.0 0.0 0.00 0.00 0.00 83 1016.4
20260905072443 77 200 0.0 0.0 0.00 0.00 0.00 83 1016.5
20260905072249 77 200 0.0 0.0 0.00 0.00 0.00 83 1016.5
20260905072238 77 200 0.0 0.0 0.00 0.00 0.00 83 1016.5
20260905072019 77 200 0.0 0.0 0.00 0.00 0.00 83 1016.5
20260905071918 77 200 0.0 0.0 0.00 0.00 0.00 83 1016.5
20260905071818 77 200 0.0 0.0 0.00 0.00 0.00 83 1016.6
20260905071718 77 200 0.0 0.0 0.00 0.00 0.00 83 1016.5
20260905071616 77 200 0.0 0.0 0.00 0.00 0.00 83 1016.6
20260905071517 77 200 0.0 0.0 0.00 0.00 0.00 83 1016.5
20260905071413 77 200 0.0 0.0 0.00 0.00 0.00 83 1016.5
20260905071315 77 200 0.0 0.0 0.00 0.00 0.00 83 1016.6
20260905071213 77 200 0.0 0.0 0.00 0.00 0.00 84 1016.6
20260905071110 77 200 0.0 0.0 0.00 0.00 0.00 84 1016.5
20260905071002 77 200 0.0 0.0 0.00 0.00 0.00 84 1016.5
20260905070900 77 200 0.0 0.0 0.00 0.00 0.00 84 1016.5
20260905070759 77 200 0.0 0.0 0.00 0.00 0.00 84 1016.5
20260905070726 77 200 0.0 0.0 0.00 0.00 0.00 83 1016.6
20260905070716 77 200 0.0 0.0 0.00 0.00 0.00 83 1016.5
20260905070520 77 200 0.0 0.0 0.00 0.00 0.00 82 1016.6
20260905070510 77 200 0.0 0.0 0.00 0.00 0.00 83 1016.5
20260905070254 77 200 0.0 0.0 0.00 0.00 0.00 82 1016.6
20260905070154 77 200 0.0 0.0 0.00 0.00 0.00 81 1016.6
20260905070054 77 200 0.0 0.0 0.00 0.00 0.00 80 1016.6
20260905065947 77 200 0.0 0.0 0.00 0.00 0.00 80 1016.6
20260905065847 77 200 0.0 0.0 0.00 0.00 0.00 80 1016.6
20260905065748 77 200 0.0 0.0 0.00 0.00 0.00 80 1016.6
20260905065714 77 200 0.0 0.0 0.00 0.00 0.00 81 1016.6
20260905065702 77 200 0.0 0.0 0.00 0.00 0.00 81 1016.5
20260905065437 77 200 0.0 0.0 0.00 0.00 0.00 81 1016.6
20260905065338 77 200 0.0 0.0 0.00 0.00 0.00 81 1016.6
20260905065238 77 200 0.0 0.0 0.00 0.00 0.00 81 1016.6
20260905065138 77 200 0.0 0.0 0.00 0.00 0.00 81 1016.7
20260905065037 77 200 0.0 0.0 0.00 0.00 0.00 81 1016.6
20260905064934 77 200 0.0 0.0 0.00 0.00 0.00 81 1016.6
20260905064832 77 200 0.0 0.0 0.00 0.00 0.00 81 1016.6
20260905064758 77 200 0.0 0.0 0.00 0.00 0.00 81 1016.7
20260905064747 77 200 0.0 0.0 0.00 0.00 0.00 81 1016.6
20260905064532 77 200 0.0 0.0 0.00 0.00 0.00 81 1016.6
20260905064453 77 200 0.0 0.0 0.00 0.00 0.00 80 1016.6
20260905064441 77 200 0.0 0.0 0.00 0.00 0.00 81 1016.7
20260905064227 77 200 0.0 0.0 0.00 0.00 0.00 80 1016.7
20260905064125 77 200 0.0 0.0 0.00 0.00 0.00 80 1016.7
20260905064047 77 200 0.0 0.0 0.00 0.00 0.00 80 1016.7
20260905064035 77 200 0.0 0.0 0.00 0.00 0.00 80 1016.7
20260905063816 77 200 0.0 0.0 0.00 0.00 0.00 80 1016.7
20260905063743 77 200 0.0 0.0 0.00 0.00 0.00 81 1016.8
20260905063731 77 200 0.0 0.0 0.00 0.00 0.00 80 1016.7
20260905063516 77 200 0.0 0.0 0.00 0.00 0.00 81 1016.6
20260905063415 77 200 0.0 0.0 0.00 0.00 0.00 81 1016.7
20260905063313 77 200 0.0 0.0 0.00 0.00 0.00 80 1016.8
20260905063215 77 200 0.0 0.0 0.00 0.00 0.00 80 1016.6
20260905063111 77 200 0.0 0.0 0.00 0.00 0.00 80 1016.7
20260905063036 77 200 0.0 0.0 0.00 0.00 0.00 80 1016.6
20260905063024 77 200 0.0 0.0 0.00 0.00 0.00 80 1016.6
20260905062808 77 200 0.0 0.0 0.00 0.00 0.00 80 1016.7
20260905062709 77 200 0.0 0.0 0.00 0.00 0.00 80 1016.7
20260905062605 77 200 0.0 0.0 0.00 0.00 0.00 80 1016.6
20260905062504 77 200 0.0 0.0 0.00 0.00 0.00 80 1016.6
20260905062400 77 200 0.0 0.0 0.00 0.00 0.00 80 1016.5
20260905062258 77 200 0.0 0.0 0.00 0.00 0.00 81 1016.6
20260905062155 77 200 0.0 0.0 0.00 0.00 0.00 80 1016.6
20260905062056 77 200 0.0 0.0 0.00 0.00 0.00 81 1016.6
20260905062018 77 200 0.0 0.0 0.00 0.00 0.00 80 1016.7
20260905062007 77 200 0.0 0.0 0.00 0.00 0.00 80 1016.7
20260905061752 77 200 0.0 0.0 0.00 0.00 0.00 81 1016.6
20260905061650 77 200 0.0 0.0 0.00 0.00 0.00 81 1016.6
20260905061550 77 200 0.0 0.0 0.00 0.00 0.00 81 1016.7
20260905061514 77 200 0.0 0.0 0.00 0.00 0.00 80 1016.6
20260905061503 77 200 0.0 0.0 0.00 0.00 0.00 81 1016.6
20260905061245 77 200 0.0 0.0 0.00 0.00 0.00 80 1016.6
20260905061145 77 200 0.0 0.0 0.00 0.00 0.00 80 1016.6
20260905061045 77 200 0.0 0.0 0.00 0.00 0.00 80 1016.5
20260905060942 77 200 0.0 0.0 0.00 0.00 0.00 80 1016.6
20260905060833 77 200 0.0 0.0 0.00 0.00 0.00 80 1016.5
20260905060732 77 200 0.0 0.0 0.00 0.00 0.00 80 1016.5
20260905060632 77 200 0.0 0.0 0.00 0.00 0.00 80 1016.5
20260905060532 77 200 0.0 0.0 0.00 0.00 0.00 80 1016.5
20260905060432 77 200 0.0 0.0 0.00 0.00 0.00 80 1016.4
20260905060357 77 200 0.0 0.0 0.00 0.00 0.00 80 1016.5
20260905060345 77 200 0.0 0.0 0.00 0.00 0.00 80 1016.5
20260905060153 77 200 0.0 0.0 0.00 0.00 0.00 80 1016.5
20260905060142 77 200 0.0 0.0 0.00 0.00 0.00 80 1016.6
20260905055926 77 200 0.0 0.0 0.00 0.00 0.00 80 1016.6
20260905055826 77 200 0.0 0.0 0.00 0.00 0.00 80 1016.7
20260905055723 77 200 0.0 0.0 0.00 0.00 0.00 80 1016.6
20260905055625 77 200 0.0 0.0 0.00 0.00 0.00 80 1016.7
20260905055521 77 200 0.0 0.0 0.00 0.00 0.00 80 1016.6
20260905055447 77 200 0.0 0.0 0.00 0.00 0.00 80 1016.7
20260905055436 77 200 0.0 0.0 0.00 0.00 0.00 80 1016.6
20260905055218 77 200 0.0 0.0 0.00 0.00 0.00 80 1016.6
20260905055115 77 200 0.0 0.0 0.00 0.00 0.00 80 1016.7
20260905055016 77 200 0.0 0.0 0.00 0.00 0.00 80 1016.8
20260905054916 77 200 0.0 0.0 0.00 0.00 0.00 80 1016.7
20260905054813 77 200 0.0 0.0 0.00 0.00 0.00 80 1016.7
20260905054713 77 200 0.0 0.0 0.00 0.00 0.00 80 1016.7
20260905054610 77 200 0.0 0.0 0.00 0.00 0.00 80 1016.7
20260905054510 77 200 0.0 0.0 0.00 0.00 0.00 80 1016.7
20260905054411 77 200 0.0 0.0 0.00 0.00 0.00 80 1016.7
20260905054332 77 200 0.0 0.0 0.00 0.00 0.00 80 1016.8
20260905054321 77 200 0.0 0.0 0.00 0.00 0.00 80 1016.7
20260905054130 77 200 0.0 0.0 0.00 0.00 0.00 81 1016.7
20260905054118 77 200 0.0 0.0 0.00 0.00 0.00 81 1016.7
20260905053933 78 200 0.0 0.0 0.00 0.00 0.00 82 1016.8
20260905053921 77 200 0.0 0.0 0.00 0.00 0.00 81 1016.6
20260905053704 78 200 0.0 0.0 0.00 0.00 0.00 82 1016.8
20260905053604 78 200 0.0 0.0 0.00 0.00 0.00 82 1016.8
20260905053501 78 200 0.0 0.0 0.00 0.00 0.00 81 1016.9
20260905053403 78 200 0.0 0.0 0.00 0.00 0.00 81 1016.9
20260905053300 78 200 0.0 0.0 0.00 0.00 0.00 80 1016.8
20260905053158 77 200 0.0 0.0 0.00 0.00 0.00 80 1016.8
20260905053057 78 200 0.0 0.0 0.00 0.00 0.00 80 1016.8
20260905052957 78 200 0.0 0.0 0.00 0.00 0.00 80 1016.8
20260905052856 78 200 0.0 0.0 0.00 0.00 0.00 80 1016.7
20260905052754 78 200 0.0 0.0 0.00 0.00 0.00 80 1016.8
20260905052651 78 200 0.0 0.0 0.00 0.00 0.00 80 1016.8
20260905052551 78 200 0.0 0.0 0.00 0.00 0.00 80 1016.7
20260905052451 78 200 0.0 0.0 0.00 0.00 0.00 80 1016.7
20260905052349 78 200 0.0 0.0 0.00 0.00 0.00 80 1016.7
20260905052250 78 200 0.0 0.0 0.00 0.00 0.00 81 1016.7
20260905052150 78 200 0.0 0.0 0.00 0.00 0.00 81 1016.8
20260905052051 78 200 0.0 0.0 0.00 0.00 0.00 81 1016.7
20260905051950 78 200 0.0 0.0 0.00 0.00 0.00 81 1016.7
20260905051914 78 200 0.0 0.0 0.00 0.00 0.00 82 1016.8
20260905051903 78 200 0.0 0.0 0.00 0.00 0.00 81 1016.8
20260905051651 78 200 0.0 0.0 0.00 0.00 0.00 82 1016.8
20260905051549 78 200 0.0 0.0 0.00 0.00 0.00 82 1016.8
20260905051450 78 200 0.0 0.0 0.00 0.00 0.00 82 1016.8
20260905051348 78 200 0.0 0.0 0.00 0.00 0.00 82 1016.8
20260905051247 78 200 0.0 0.0 0.00 0.00 0.00 82 1016.8
20260905051147 78 200 0.0 0.0 0.00 0.00 0.00 83 1016.8
20260905051046 78 200 0.0 0.0 0.00 0.00 0.00 83 1016.9
20260905050946 78 200 0.0 0.0 0.00 0.00 0.00 83 1016.8
20260905050845 78 200 0.0 0.0 0.00 0.00 0.00 83 1016.8
20260905050745 78 200 0.0 0.0 0.00 0.00 0.00 83 1016.8
20260905050645 78 200 0.0 0.0 0.00 0.00 0.00 83 1016.8
20260905050545 78 200 0.0 0.0 0.00 0.00 0.00 83 1016.9
20260905050446 78 200 0.0 0.0 0.00 0.00 0.00 83 1016.8
20260905050341 78 200 0.0 0.0 0.00 0.00 0.00 83 1016.9
20260905050328 78 200 0.0 0.0 0.00 0.00 0.00 83 1016.9
20260905050323 78 200 0.0 0.0 0.00 0.00 0.00 83 1017.0
20260905050310 78 200 0.0 0.0 0.00 0.00 0.00 83 1016.9
20260905045941 78 200 0.0 0.0 0.00 0.00 0.00 83 1016.9
20260905045836 78 200 0.0 0.0 0.00 0.00 0.00 83 1016.9
20260905045735 78 200 0.0 0.0 0.00 0.00 0.00 83 1016.9
20260905045635 78 200 0.0 0.0 0.00 0.00 0.00 82 1016.9
20260905045536 78 200 0.0 0.0 0.00 0.00 0.00 82 1016.9
20260905045435 78 200 0.0 0.0 0.00 0.00 0.00 83 1016.8
20260905045402 78 200 0.0 0.0 0.00 0.00 0.00 83 1016.9
20260905045350 78 200 0.0 0.0 0.00 0.00 0.00 83 1016.9
20260905045133 78 200 0.0 0.0 0.00 0.00 0.00 83 1016.9
20260905045034 78 200 0.0 0.0 0.00 0.00 0.00 83 1016.9
20260905044934 78 200 0.0 0.0 0.00 0.00 0.00 82 1016.8
20260905044833 78 200 0.0 0.0 0.00 0.00 0.00 83 1016.8
20260905044818 78 200 0.0 0.0 0.00 0.00 0.00 82 1016.8
20260905044813 78 200 0.0 0.0 0.00 0.00 0.00 82 1016.8
20260905044800 78 200 0.0 0.0 0.00 0.00 0.00 82 1016.8
20260905044434 78 200 0.0 0.0 0.00 0.00 0.00 82 1016.8
20260905044334 78 200 0.0 0.0 0.00 0.00 0.00 82 1016.8
20260905044234 78 200 0.0 0.0 0.00 0.00 0.00 82 1016.9
20260905044134 78 200 0.0 0.0 0.00 0.00 0.00 82 1016.9
20260905044059 78 200 0.0 0.0 0.00 0.00 0.00 82 1016.9
20260905044048 78 200 0.0 0.0 0.00 0.00 0.00 82 1016.9
20260905043832 78 200 0.0 0.0 0.00 0.00 0.00 82 1016.9
20260905043734 78 200 0.0 0.0 0.00 0.00 0.00 82 1016.9
20260905043633 78 200 0.0 0.0 0.00 0.00 0.00 82 1016.9
20260905043534 78 200 0.0 0.0 0.00 0.00 0.00 82 1016.9
20260905043501 78 200 0.0 0.0 0.00 0.00 0.00 82 1017.5
20260905043449 78 200 0.0 0.0 0.00 0.00 0.00 82 1017.0
20260905043229 78 200 0.0 0.0 0.00 0.00 0.00 82 1017.0
20260905043129 78 200 0.0 0.0 0.00 0.00 0.00 83 1016.9
20260905043030 78 200 0.0 0.0 0.00 0.00 0.00 82 1017.0
20260905042929 78 200 0.0 0.0 0.00 0.00 0.00 82 1017.0
20260905042830 78 200 0.0 0.0 0.00 0.00 0.00 82 1017.0
20260905042729 79 200 0.0 0.0 0.00 0.00 0.00 82 1017.0
20260905042654 79 200 0.0 0.0 0.00 0.00 0.00 82 1017.0
20260905042644 79 200 0.0 0.0 0.00 0.00 0.00 82 1017.0
20260905042430 79 200 0.0 0.0 0.00 0.00 0.00 82 1016.9
20260905042329 79 200 0.0 0.0 0.00 0.00 0.00 82 1016.9
20260905042319 79 200 0.0 0.0 0.00 0.00 0.00 82 1016.9
20260905042313 79 200 0.0 0.0 0.00 0.00 0.00 82 1016.9
20260905042300 79 200 0.0 0.0 0.00 0.00 0.00 82 1017.0
20260905041930 79 200 0.0 0.0 0.00 0.00 0.00 82 1017.0
20260905041855 79 200 0.0 1.7 0.00 0.00 0.00 81 1017.0
20260905041843 79 200 0.0 0.0 0.00 0.00 0.00 81 1017.0
20260905041655 79 200 0.0 1.7 0.00 0.00 0.00 81 1017.0
20260905041644 79 200 0.0 1.7 0.00 0.00 0.00 81 1017.0
20260905041454 79 200 0.0 1.7 0.00 0.00 0.00 81 1017.0
20260905041443 79 200 0.0 1.7 0.00 0.00 0.00 81 1017.0
20260905041229 79 200 0.0 1.7 0.00 0.00 0.00 81 1017.0
20260905041130 79 200 0.0 1.7 0.00 0.00 0.00 81 1017.1
20260905041029 79 200 0.0 1.7 0.00 0.00 0.00 81 1017.1
20260905040929 79 200 0.0 1.7 0.00 0.00 0.00 81 1017.1
20260905040830 79 200 0.0 1.7 0.00 0.00 0.00 81 1017.1
20260905040730 79 200 0.0 1.7 0.00 0.00 0.00 81 1017.1
20260905040629 79 200 0.0 1.7 0.00 0.00 0.00 81 1017.1
20260905040529 79 200 0.9 2.6 0.00 0.00 0.00 81 1017.1
20260905040457 79 200 0.9 2.6 0.00 0.00 0.00 80 1017.1
20260905040444 79 200 0.9 2.6 0.00 0.00 0.00 81 1017.1